Wetterdaten: Samstag, 22.10.2022
Datum Zeit Temp. 2m Temp +5 cm Feuchte A. Luftdruck Regen Wind Richtung Richtung Sonnenschein UV Solar Taupunkt Windchill Windben
22.10.2022 00:00 13,2 C 11,7 C 93 % 1011,6 hPa 0,0 l/m 5,7 km/h (1 Bft) S-SO 153 0 min 0,0 UV-I 0 W/m 12,1 C 13,2 C 9,7 km/h (2 Bft)
22.10.2022 00:03 13,2 C 12,2 C 93 % 1011,6 hPa 0,0 l/m 4,8 km/h (1 Bft) S-SO 160 0 min 0,0 UV-I 0 W/m 12,1 C 13,2 C 8,0 km/h (2 Bft)
22.10.2022 00:06 13,1 C 11,7 C 92 % 1011,7 hPa 0,0 l/m 4,2 km/h (1 Bft) S-SO 161 0 min 0,0 UV-I 0 W/m 11,8 C 13,1 C 8,0 km/h (2 Bft)
22.10.2022 00:09 13,1 C 11,7 C 92 % 1011,7 hPa 0,0 l/m 4,2 km/h (1 Bft) S 174 0 min 0,0 UV-I 0 W/m 11,8 C 13,1 C 9,7 km/h (2 Bft)
22.10.2022 00:12 12,8 C 11,1 C 92 % 1011,6 hPa 0,0 l/m 2,1 km/h (1 Bft) S 177 0 min 0,0 UV-I 0 W/m 11,5 C 12,8 C 4,8 km/h (1 Bft)
22.10.2022 00:15 12,8 C 11,1 C 93 % 1011,8 hPa 0,0 l/m 2,6 km/h (1 Bft) S 177 0 min 0,0 UV-I 0 W/m 11,7 C 12,8 C 4,8 km/h (1 Bft)
22.10.2022 00:18 12,8 C 11,1 C 93 % 1011,8 hPa 0,0 l/m 3,3 km/h (1 Bft) S 177 0 min 0,0 UV-I 0 W/m 11,7 C 12,8 C 4,8 km/h (1 Bft)
22.10.2022 00:21 12,9 C 11,1 C 93 % 1011,8 hPa 0,0 l/m 2,0 km/h (1 Bft) S 177 0 min 0,0 UV-I 0 W/m 11,8 C 12,9 C 3,2 km/h (1 Bft)
22.10.2022 00:24 12,9 C 11,1 C 93 % 1011,8 hPa 0,0 l/m 2,2 km/h (1 Bft) S 177 0 min 0,0 UV-I 0 W/m 11,8 C 12,9 C 3,2 km/h (1 Bft)
22.10.2022 00:27 12,9 C 11,1 C 93 % 1011,8 hPa 0,0 l/m 1,9 km/h (1 Bft) S 177 0 min 0,0 UV-I 0 W/m 11,8 C 12,9 C 3,2 km/h (1 Bft)
22.10.2022 00:30 12,7 C 10,6 C 92 % 1011,7 hPa 0,0 l/m 2,1 km/h (1 Bft) S 175 0 min 0,0 UV-I 0 W/m 11,4 C 12,7 C 3,2 km/h (1 Bft)
22.10.2022 00:33 12,7 C 10,6 C 93 % 1011,8 hPa 0,0 l/m 1,9 km/h (1 Bft) S 175 0 min 0,0 UV-I 0 W/m 11,6 C 12,7 C 3,2 km/h (1 Bft)
22.10.2022 00:36 12,6 C 10,6 C 93 % 1011,8 hPa 0,0 l/m 2,7 km/h (1 Bft) S 178 0 min 0,0 UV-I 0 W/m 11,5 C 12,6 C 4,8 km/h (1 Bft)
22.10.2022 00:39 12,7 C 11,1 C 93 % 1011,8 hPa 0,0 l/m 7,2 km/h (2 Bft) S-SW 196 0 min 0,0 UV-I 0 W/m 11,6 C 12,2 C 9,7 km/h (2 Bft)
22.10.2022 00:42 12,9 C 11,7 C 93 % 1011,9 hPa 0,0 l/m 5,8 km/h (2 Bft) SW 223 0 min 0,0 UV-I 0 W/m 11,8 C 12,9 C 8,0 km/h (2 Bft)
22.10.2022 00:45 12,9 C 11,7 C 93 % 1011,8 hPa 0,0 l/m 5,0 km/h (1 Bft) SW 224 0 min 0,0 UV-I 0 W/m 11,8 C 12,9 C 8,0 km/h (2 Bft)
22.10.2022 00:48 12,9 C 11,7 C 93 % 1011,8 hPa 0,0 l/m 5,4 km/h (1 Bft) S-SW 205 0 min 0,0 UV-I 0 W/m 11,8 C 12,9 C 9,7 km/h (2 Bft)
22.10.2022 00:51 13,0 C 12,2 C 93 % 1012,0 hPa 0,0 l/m 7,0 km/h (2 Bft) S-SW 201 0 min 0,0 UV-I 0 W/m 11,9 C 12,6 C 9,7 km/h (2 Bft)
22.10.2022 00:54 13,1 C 12,2 C 93 % 1012,0 hPa 0,0 l/m 6,5 km/h (2 Bft) S 174 0 min 0,0 UV-I 0 W/m 12,0 C 13,1 C 14,5 km/h (3 Bft)
22.10.2022 00:57 13,2 C 12,2 C 93 % 1012,1 hPa 0,0 l/m 6,1 km/h (2 Bft) S-SO 159 0 min 0,0 UV-I 0 W/m 12,1 C 13,2 C 11,3 km/h (2 Bft)
22.10.2022 01:00 13,2 C 12,2 C 93 % 1012,0 hPa 0,0 l/m 5,3 km/h (1 Bft) S-SO 158 0 min 0,0 UV-I 0 W/m 12,1 C 13,2 C 9,7 km/h (2 Bft)
22.10.2022 01:03 13,2 C 12,2 C 93 % 1011,9 hPa 0,0 l/m 4,0 km/h (1 Bft) S-SO 154 0 min 0,0 UV-I 0 W/m 12,1 C 13,2 C 8,0 km/h (2 Bft)
22.10.2022 01:06 12,9 C 11,7 C 92 % 1011,9 hPa 0,0 l/m 1,9 km/h (1 Bft) S-SO 154 0 min 0,0 UV-I 0 W/m 11,6 C 12,9 C 3,2 km/h (1 Bft)
22.10.2022 01:09 12,8 C 11,7 C 93 % 1012,1 hPa 0,0 l/m 1,5 km/h (1 Bft) S-SO 154 0 min 0,0 UV-I 0 W/m 11,7 C 12,8 C 4,8 km/h (1 Bft)
22.10.2022 01:12 12,8 C 11,7 C 93 % 1012,2 hPa 0,0 l/m 4,6 km/h (1 Bft) S-SO 165 0 min 0,0 UV-I 0 W/m 11,7 C 12,8 C 8,0 km/h (2 Bft)
22.10.2022 01:15 12,9 C 11,7 C 93 % 1012,1 hPa 0,0 l/m 4,5 km/h (1 Bft) S-SO 165 0 min 0,0 UV-I 0 W/m 11,8 C 12,9 C 8,0 km/h (2 Bft)
22.10.2022 01:18 13,0 C 11,7 C 93 % 1012,2 hPa 0,0 l/m 3,7 km/h (1 Bft) S-SO 165 0 min 0,0 UV-I 0 W/m 11,9 C 13,0 C 6,4 km/h (2 Bft)
22.10.2022 01:21 13,1 C 11,7 C 93 % 1012,2 hPa 0,0 l/m 4,0 km/h (1 Bft) S-SO 165 0 min 0,0 UV-I 0 W/m 12,0 C 13,1 C 6,4 km/h (2 Bft)
22.10.2022 01:24 13,1 C 11,7 C 93 % 1012,3 hPa 0,0 l/m 4,5 km/h (1 Bft) S-SO 165 0 min 0,0 UV-I 0 W/m 12,0 C 13,1 C 6,4 km/h (2 Bft)
22.10.2022 01:27 13,1 C 11,7 C 93 % 1012,3 hPa 0,0 l/m 4,7 km/h (1 Bft) S 173 0 min 0,0 UV-I 0 W/m 12,0 C 13,1 C 8,0 km/h (2 Bft)
22.10.2022 01:30 13,1 C 11,7 C 93 % 1012,3 hPa 0,0 l/m 5,3 km/h (1 Bft) S-SO 166 0 min 0,0 UV-I 0 W/m 12,0 C 13,1 C 8,0 km/h (2 Bft)
22.10.2022 01:33 13,0 C 11,7 C 93 % 1012,5 hPa 0,0 l/m 5,6 km/h (1 Bft) S 177 0 min 0,0 UV-I 0 W/m 11,9 C 13,0 C 8,0 km/h (2 Bft)
22.10.2022 01:36 13,0 C 11,7 C 93 % 1012,5 hPa 0,0 l/m 6,7 km/h (2 Bft) S-SO 157 0 min 0,0 UV-I 0 W/m 11,9 C 12,8 C 12,9 km/h (3 Bft)
22.10.2022 01:39 13,2 C 12,2 C 93 % 1012,4 hPa 0,0 l/m 6,6 km/h (2 Bft) S 175 0 min 0,0 UV-I 0 W/m 12,1 C 13,1 C 12,9 km/h (3 Bft)
22.10.2022 01:42 13,3 C 12,2 C 93 % 1012,4 hPa 0,0 l/m 6,5 km/h (2 Bft) S-SW 201 0 min 0,0 UV-I 0 W/m 12,2 C 13,3 C 9,7 km/h (2 Bft)
22.10.2022 01:45 13,4 C 12,8 C 93 % 1012,5 hPa 0,0 l/m 5,7 km/h (1 Bft) S 182 0 min 0,0 UV-I 0 W/m 12,3 C 13,4 C 8,0 km/h (2 Bft)
22.10.2022 01:48 13,4 C 12,8 C 93 % 1012,4 hPa 0,0 l/m 6,1 km/h (2 Bft) S-SW 198 0 min 0,0 UV-I 0 W/m 12,3 C 13,4 C 9,7 km/h (2 Bft)
22.10.2022 01:51 13,4 C 12,8 C 93 % 1012,5 hPa 0,0 l/m 6,8 km/h (2 Bft) S 180 0 min 0,0 UV-I 0 W/m 12,3 C 13,2 C 11,3 km/h (2 Bft)
22.10.2022 01:54 13,5 C 12,8 C 93 % 1012,4 hPa 0,0 l/m 6,0 km/h (2 Bft) S 173 0 min 0,0 UV-I 0 W/m 12,4 C 13,5 C 9,7 km/h (2 Bft)
22.10.2022 01:57 13,6 C 12,8 C 93 % 1012,5 hPa 0,0 l/m 5,5 km/h (1 Bft) S 178 0 min 0,0 UV-I 0 W/m 12,5 C 13,6 C 11,3 km/h (2 Bft)
22.10.2022 02:00 13,6 C 12,8 C 93 % 1012,4 hPa 0,0 l/m 4,5 km/h (1 Bft) S 180 0 min 0,0 UV-I 0 W/m 12,5 C 13,6 C 6,4 km/h (2 Bft)
22.10.2022 02:03 13,6 C 12,8 C 93 % 1012,4 hPa 0,0 l/m 4,2 km/h (1 Bft) S 179 0 min 0,0 UV-I 0 W/m 12,5 C 13,6 C 6,4 km/h (2 Bft)
22.10.2022 02:06 13,7 C 12,8 C 93 % 1012,5 hPa 0,0 l/m 4,1 km/h (1 Bft) S 179 0 min 0,0 UV-I 0 W/m 12,6 C 13,7 C 4,8 km/h (1 Bft)
22.10.2022 02:09 13,7 C 13,3 C 93 % 1012,3 hPa 0,0 l/m 5,4 km/h (1 Bft) S-SO 163 0 min 0,0 UV-I 0 W/m 12,6 C 13,7 C 8,0 km/h (2 Bft)
22.10.2022 02:12 13,7 C 13,3 C 93 % 1012,3 hPa 0,0 l/m 4,0 km/h (1 Bft) S 190 0 min 0,0 UV-I 0 W/m 12,6 C 13,7 C 6,4 km/h (2 Bft)
22.10.2022 02:15 13,7 C 13,3 C 93 % 1012,3 hPa 0,0 l/m 4,1 km/h (1 Bft) S-SW 203 0 min 0,0 UV-I 0 W/m 12,6 C 13,7 C 11,3 km/h (2 Bft)
22.10.2022 02:18 13,7 C 13,3 C 93 % 1012,3 hPa 0,0 l/m 6,3 km/h (2 Bft) S 180 0 min 0,0 UV-I 0 W/m 12,6 C 13,7 C 11,3 km/h (2 Bft)
22.10.2022 02:21 13,7 C 13,3 C 93 % 1012,4 hPa 0,0 l/m 7,4 km/h (2 Bft) S-SO 163 0 min 0,0 UV-I 0 W/m 12,6 C 13,1 C 12,9 km/h (3 Bft)
22.10.2022 02:24 13,8 C 13,3 C 93 % 1012,3 hPa 0,0 l/m 6,3 km/h (2 Bft) SO 144 0 min 0,0 UV-I 0 W/m 12,7 C 13,8 C 11,3 km/h (2 Bft)
22.10.2022 02:27 13,8 C 13,3 C 93 % 1012,3 hPa 0,0 l/m 5,1 km/h (1 Bft) S-SO 161 0 min 0,0 UV-I 0 W/m 12,7 C 13,8 C 8,0 km/h (2 Bft)
22.10.2022 02:30 13,8 C 13,3 C 93 % 1012,2 hPa 0,0 l/m 6,0 km/h (2 Bft) S-SO 155 0 min 0,0 UV-I 0 W/m 12,7 C 13,8 C 14,5 km/h (3 Bft)
22.10.2022 02:33 13,8 C 13,3 C 93 % 1012,4 hPa 0,0 l/m 7,1 km/h (2 Bft) S-SO 163 0 min 0,0 UV-I 0 W/m 12,7 C 13,4 C 12,9 km/h (3 Bft)
22.10.2022 02:36 13,8 C 13,3 C 93 % 1012,2 hPa 0,0 l/m 4,7 km/h (1 Bft) S-SO 152 0 min 0,0 UV-I 0 W/m 12,7 C 13,8 C 8,0 km/h (2 Bft)
22.10.2022 02:39 13,7 C 13,3 C 93 % 1012,2 hPa 0,0 l/m 6,1 km/h (2 Bft) SO 138 0 min 0,0 UV-I 0 W/m 12,6 C 13,7 C 12,9 km/h (3 Bft)
22.10.2022 02:42 13,8 C 13,3 C 93 % 1012,2 hPa 0,0 l/m 6,0 km/h (2 Bft) SO 146 0 min 0,0 UV-I 0 W/m 12,7 C 13,8 C 11,3 km/h (2 Bft)
22.10.2022 02:45 13,8 C 13,3 C 93 % 1012,1 hPa 0,0 l/m 6,0 km/h (2 Bft) S-SO 160 0 min 0,0 UV-I 0 W/m 12,7 C 13,8 C 9,7 km/h (2 Bft)
22.10.2022 02:48 13,8 C 13,3 C 93 % 1012,1 hPa 0,0 l/m 3,8 km/h (1 Bft) S-SO 160 0 min 0,0 UV-I 0 W/m 12,7 C 13,8 C 8,0 km/h (2 Bft)
22.10.2022 02:51 13,8 C 13,3 C 93 % 1012,1 hPa 0,0 l/m 3,6 km/h (1 Bft) S-SO 160 0 min 0,0 UV-I 0 W/m 12,7 C 13,8 C 8,0 km/h (2 Bft)
22.10.2022 02:54 13,8 C 13,3 C 93 % 1012,2 hPa 0,0 l/m 3,9 km/h (1 Bft) S-SO 161 0 min 0,0 UV-I 0 W/m 12,7 C 13,8 C 8,0 km/h (2 Bft)
22.10.2022 02:57 13,7 C 13,3 C 93 % 1012,2 hPa 0,0 l/m 4,7 km/h (1 Bft) S-SO 164 0 min 0,0 UV-I 0 W/m 12,6 C 13,7 C 8,0 km/h (2 Bft)
22.10.2022 03:00 13,8 C 13,3 C 93 % 1012,3 hPa 0,0 l/m 5,7 km/h (1 Bft) S 173 0 min 0,0 UV-I 0 W/m 12,7 C 13,8 C 8,0 km/h (2 Bft)
22.10.2022 03:03 13,7 C 13,3 C 93 % 1012,1 hPa 0,0 l/m 4,6 km/h (1 Bft) S 173 0 min 0,0 UV-I 0 W/m 12,6 C 13,7 C 8,0 km/h (2 Bft)
22.10.2022 03:06 13,7 C 13,3 C 93 % 1012,1 hPa 0,0 l/m 4,9 km/h (1 Bft) S-SO 164 0 min 0,0 UV-I 0 W/m 12,6 C 13,7 C 9,7 km/h (2 Bft)
22.10.2022 03:09 13,8 C 13,3 C 93 % 1012,2 hPa 0,0 l/m 5,9 km/h (2 Bft) SO 124 0 min 0,0 UV-I 0 W/m 12,7 C 13,8 C 11,3 km/h (2 Bft)
22.10.2022 03:12 13,8 C 13,3 C 93 % 1012,2 hPa 0,0 l/m 6,6 km/h (2 Bft) S-SO 158 0 min 0,0 UV-I 0 W/m 12,7 C 13,7 C 14,5 km/h (3 Bft)
22.10.2022 03:15 13,8 C 13,3 C 93 % 1012,4 hPa 0,0 l/m 3,0 km/h (1 Bft) S-SO 156 0 min 0,0 UV-I 0 W/m 12,7 C 13,8 C 4,8 km/h (1 Bft)
22.10.2022 03:18 13,7 C 12,8 C 92 % 1012,4 hPa 0,0 l/m 3,1 km/h (1 Bft) S 173 0 min 0,0 UV-I 0 W/m 12,4 C 13,7 C 8,0 km/h (2 Bft)
22.10.2022 03:21 13,7 C 12,8 C 93 % 1012,4 hPa 0,0 l/m 5,8 km/h (2 Bft) S 186 0 min 0,0 UV-I 0 W/m 12,6 C 13,7 C 9,7 km/h (2 Bft)
22.10.2022 03:24 13,7 C 12,8 C 92 % 1012,5 hPa 0,0 l/m 6,2 km/h (2 Bft) S 172 0 min 0,0 UV-I 0 W/m 12,4 C 13,7 C 9,7 km/h (2 Bft)
22.10.2022 03:27 13,7 C 12,8 C 92 % 1012,3 hPa 0,0 l/m 5,9 km/h (2 Bft) S 173 0 min 0,0 UV-I 0 W/m 12,4 C 13,7 C 9,7 km/h (2 Bft)
22.10.2022 03:30 13,7 C 12,8 C 92 % 1012,3 hPa 0,0 l/m 5,9 km/h (2 Bft) S-SO 163 0 min 0,0 UV-I 0 W/m 12,4 C 13,7 C 14,5 km/h (3 Bft)
22.10.2022 03:33 13,7 C 12,8 C 92 % 1012,2 hPa 0,0 l/m 6,1 km/h (2 Bft) S-SO 161 0 min 0,0 UV-I 0 W/m 12,4 C 13,7 C 11,3 km/h (2 Bft)
22.10.2022 03:36 13,7 C 12,8 C 92 % 1012,4 hPa 0,0 l/m 3,8 km/h (1 Bft) S-SO 161 0 min 0,0 UV-I 0 W/m 12,4 C 13,7 C 6,4 km/h (2 Bft)
22.10.2022 03:39 13,7 C 12,8 C 92 % 1012,3 hPa 0,0 l/m 6,0 km/h (2 Bft) S-SO 164 0 min 0,0 UV-I 0 W/m 12,4 C 13,7 C 9,7 km/h (2 Bft)
22.10.2022 03:42 13,7 C 12,8 C 92 % 1012,2 hPa 0,0 l/m 5,5 km/h (1 Bft) S-SW 198 0 min 0,0 UV-I 0 W/m 12,4 C 13,7 C 9,7 km/h (2 Bft)
22.10.2022 03:45 13,7 C 12,8 C 92 % 1012,2 hPa 0,0 l/m 4,6 km/h (1 Bft) S 190 0 min 0,0 UV-I 0 W/m 12,4 C 13,7 C 8,0 km/h (2 Bft)
22.10.2022 03:48 13,7 C 13,3 C 92 % 1012,2 hPa 0,0 l/m 7,1 km/h (2 Bft) S 187 0 min 0,0 UV-I 0 W/m 12,4 C 13,3 C 12,9 km/h (3 Bft)
22.10.2022 03:51 13,8 C 13,3 C 92 % 1012,2 hPa 0,0 l/m 6,5 km/h (2 Bft) S 180 0 min 0,0 UV-I 0 W/m 12,5 C 13,8 C 12,9 km/h (3 Bft)
22.10.2022 03:54 13,8 C 13,3 C 92 % 1012,1 hPa 0,0 l/m 6,1 km/h (2 Bft) S-SW 198 0 min 0,0 UV-I 0 W/m 12,5 C 13,8 C 9,7 km/h (2 Bft)
22.10.2022 03:57 13,8 C 13,3 C 92 % 1012,1 hPa 0,0 l/m 7,2 km/h (2 Bft) S 184 0 min 0,0 UV-I 0 W/m 12,5 C 13,3 C 14,5 km/h (3 Bft)
22.10.2022 04:00 13,8 C 13,3 C 92 % 1012,2 hPa 0,0 l/m 7,2 km/h (2 Bft) S-SW 192 0 min 0,0 UV-I 0 W/m 12,5 C 13,3 C 11,3 km/h (2 Bft)
22.10.2022 04:03 13,8 C 12,8 C 92 % 1012,2 hPa 0,0 l/m 4,5 km/h (1 Bft) S 181 0 min 0,0 UV-I 0 W/m 12,5 C 13,8 C 9,7 km/h (2 Bft)
22.10.2022 04:06 13,8 C 12,8 C 92 % 1012,2 hPa 0,0 l/m 5,1 km/h (1 Bft) S 180 0 min 0,0 UV-I 0 W/m 12,5 C 13,8 C 9,7 km/h (2 Bft)
22.10.2022 04:09 13,8 C 12,8 C 92 % 1012,2 hPa 0,0 l/m 7,8 km/h (2 Bft) S 176 0 min 0,0 UV-I 0 W/m 12,5 C 13,0 C 11,3 km/h (2 Bft)
22.10.2022 04:12 13,8 C 12,8 C 92 % 1012,2 hPa 0,0 l/m 8,2 km/h (2 Bft) S-SO 166 0 min 0,0 UV-I 0 W/m 12,5 C 12,7 C 12,9 km/h (3 Bft)
22.10.2022 04:15 13,7 C 12,8 C 91 % 1012,2 hPa 0,0 l/m 6,8 km/h (2 Bft) S-SW 197 0 min 0,0 UV-I 0 W/m 12,3 C 13,5 C 11,3 km/h (2 Bft)
22.10.2022 04:18 13,7 C 12,8 C 91 % 1012,3 hPa 0,0 l/m 9,6 km/h (2 Bft) S-SW 198 0 min 0,0 UV-I 0 W/m 12,3 C 11,9 C 14,5 km/h (3 Bft)
22.10.2022 04:21 13,7 C 12,8 C 91 % 1012,2 hPa 0,0 l/m 8,4 km/h (2 Bft) S-SW 195 0 min 0,0 UV-I 0 W/m 12,3 C 12,5 C 12,9 km/h (3 Bft)
22.10.2022 04:24 13,7 C 12,8 C 91 % 1012,2 hPa 0,0 l/m 8,8 km/h (2 Bft) S-SW 197 0 min 0,0 UV-I 0 W/m 12,3 C 12,3 C 14,5 km/h (3 Bft)
22.10.2022 04:27 13,6 C 12,8 C 91 % 1012,3 hPa 0,0 l/m 8,0 km/h (2 Bft) S 171 0 min 0,0 UV-I 0 W/m 12,2 C 12,6 C 11,3 km/h (2 Bft)
22.10.2022 04:30 13,6 C 12,8 C 91 % 1012,3 hPa 0,0 l/m 10,4 km/h (2 Bft) S-SW 192 0 min 0,0 UV-I 0 W/m 12,2 C 11,4 C 14,5 km/h (3 Bft)
22.10.2022 04:33 13,6 C 12,8 C 91 % 1012,3 hPa 0,0 l/m 9,3 km/h (2 Bft) S 191 0 min 0,0 UV-I 0 W/m 12,2 C 11,9 C 14,5 km/h (3 Bft)
22.10.2022 04:36 13,7 C 13,3 C 91 % 1012,4 hPa 0,0 l/m 13,5 km/h (3 Bft) S 186 0 min 0,0 UV-I 0 W/m 12,3 C 10,2 C 20,9 km/h (4 Bft)
22.10.2022 04:39 13,7 C 13,3 C 91 % 1012,3 hPa 0,0 l/m 13,6 km/h (3 Bft) S-SW 197 0 min 0,0 UV-I 0 W/m 12,3 C 10,1 C 19,3 km/h (3 Bft)
22.10.2022 04:42 13,7 C 13,3 C 91 % 1012,3 hPa 0,0 l/m 9,9 km/h (2 Bft) S-SW 199 0 min 0,0 UV-I 0 W/m 12,3 C 11,7 C 16,1 km/h (3 Bft)
22.10.2022 04:45 13,7 C 12,8 C 91 % 1012,4 hPa 0,0 l/m 11,4 km/h (2 Bft) SW 219 0 min 0,0 UV-I 0 W/m 12,3 C 11,0 C 16,1 km/h (3 Bft)
22.10.2022 04:48 13,7 C 12,8 C 91 % 1012,4 hPa 0,0 l/m 9,8 km/h (2 Bft) S-SW 209 0 min 0,0 UV-I 0 W/m 12,3 C 11,8 C 14,5 km/h (3 Bft)
22.10.2022 04:51 13,6 C 12,8 C 91 % 1012,4 hPa 0,0 l/m 10,9 km/h (2 Bft) S-SW 209 0 min 0,0 UV-I 0 W/m 12,2 C 11,1 C 19,3 km/h (3 Bft)
22.10.2022 04:54 13,6 C 12,8 C 91 % 1012,5 hPa 0,0 l/m 12,2 km/h (2 Bft) S 170 0 min 0,0 UV-I 0 W/m 12,2 C 10,6 C 20,9 km/h (4 Bft)
22.10.2022 04:57 13,6 C 12,8 C 90 % 1012,5 hPa 0,0 l/m 14,1 km/h (3 Bft) S-SW 209 0 min 0,0 UV-I 0 W/m 12,0 C 9,8 C 22,5 km/h (4 Bft)
22.10.2022 05:00 13,6 C 12,8 C 90 % 1012,5 hPa 0,0 l/m 10,9 km/h (2 Bft) S-SW 196 0 min 0,0 UV-I 0 W/m 12,0 C 11,1 C 16,1 km/h (3 Bft)
22.10.2022 05:03 13,6 C 12,8 C 90 % 1012,5 hPa 0,0 l/m 9,8 km/h (2 Bft) SW 214 0 min 0,0 UV-I 0 W/m 12,0 C 11,7 C 17,7 km/h (3 Bft)
22.10.2022 05:06 13,6 C 12,8 C 90 % 1012,5 hPa 0,0 l/m 10,1 km/h (2 Bft) S-SW 213 0 min 0,0 UV-I 0 W/m 12,0 C 11,5 C 14,5 km/h (3 Bft)
22.10.2022 05:09 13,5 C 12,8 C 90 % 1012,5 hPa 0,0 l/m 11,1 km/h (2 Bft) S 186 0 min 0,0 UV-I 0 W/m 11,9 C 10,9 C 17,7 km/h (3 Bft)
22.10.2022 05:12 13,4 C 12,8 C 90 % 1012,5 hPa 0,0 l/m 12,0 km/h (2 Bft) S-SO 167 0 min 0,0 UV-I 0 W/m 11,8 C 10,4 C 17,7 km/h (3 Bft)
22.10.2022 05:15 13,4 C 12,8 C 90 % 1012,5 hPa 0,0 l/m 9,0 km/h (2 Bft) S-SW 193 0 min 0,0 UV-I 0 W/m 11,8 C 11,9 C 16,1 km/h (3 Bft)
22.10.2022 05:18 13,3 C 12,8 C 90 % 1012,6 hPa 0,0 l/m 11,4 km/h (2 Bft) S-SW 193 0 min 0,0 UV-I 0 W/m 11,7 C 10,6 C 14,5 km/h (3 Bft)
22.10.2022 05:21 13,3 C 12,2 C 90 % 1012,5 hPa 0,0 l/m 10,9 km/h (2 Bft) S-SW 196 0 min 0,0 UV-I 0 W/m 11,7 C 10,8 C 17,7 km/h (3 Bft)
22.10.2022 05:24 13,2 C 12,2 C 90 % 1012,6 hPa 0,0 l/m 10,7 km/h (2 Bft) S-SW 195 0 min 0,0 UV-I 0 W/m 11,6 C 10,8 C 16,1 km/h (3 Bft)
22.10.2022 05:27 13,1 C 11,7 C 90 % 1012,6 hPa 0,0 l/m 10,3 km/h (2 Bft) S-SW 207 0 min 0,0 UV-I 0 W/m 11,5 C 10,9 C 14,5 km/h (3 Bft)
22.10.2022 05:30 12,9 C 11,7 C 90 % 1012,6 hPa 0,0 l/m 11,7 km/h (2 Bft) S 188 0 min 0,0 UV-I 0 W/m 11,3 C 10,0 C 16,1 km/h (3 Bft)
22.10.2022 05:33 12,9 C 11,7 C 90 % 1012,7 hPa 0,0 l/m 13,3 km/h (3 Bft) S-SW 200 0 min 0,0 UV-I 0 W/m 11,3 C 9,3 C 20,9 km/h (4 Bft)
22.10.2022 05:36 12,8 C 11,7 C 90 % 1012,7 hPa 0,0 l/m 15,0 km/h (3 Bft) S-SW 205 0 min 0,0 UV-I 0 W/m 11,2 C 8,5 C 24,1 km/h (4 Bft)
22.10.2022 05:39 12,8 C 11,7 C 90 % 1012,7 hPa 0,0 l/m 14,5 km/h (3 Bft) S-SW 194 0 min 0,0 UV-I 0 W/m 11,2 C 8,7 C 24,1 km/h (4 Bft)
22.10.2022 05:42 12,8 C 11,7 C 90 % 1012,8 hPa 0,0 l/m 12,1 km/h (2 Bft) S-SW 192 0 min 0,0 UV-I 0 W/m 11,2 C 9,7 C 19,3 km/h (3 Bft)
22.10.2022 05:45 12,8 C 12,2 C 90 % 1012,9 hPa 0,0 l/m 13,9 km/h (3 Bft) S 178 0 min 0,0 UV-I 0 W/m 11,2 C 8,9 C 24,1 km/h (4 Bft)
22.10.2022 05:48 12,9 C 12,2 C 90 % 1012,9 hPa 0,0 l/m 14,1 km/h (3 Bft) S 169 0 min 0,0 UV-I 0 W/m 11,3 C 9,0 C 20,9 km/h (4 Bft)
22.10.2022 05:51 12,9 C 12,2 C 90 % 1012,9 hPa 0,0 l/m 14,8 km/h (3 Bft) S-SW 193 0 min 0,0 UV-I 0 W/m 11,3 C 8,7 C 24,1 km/h (4 Bft)
22.10.2022 05:54 13,0 C 12,2 C 90 % 1012,8 hPa 0,0 l/m 14,8 km/h (3 Bft) SW 234 0 min 0,0 UV-I 0 W/m 11,4 C 8,8 C 24,1 km/h (4 Bft)
22.10.2022 05:57 12,9 C 12,2 C 89 % 1012,9 hPa 0,0 l/m 12,9 km/h (3 Bft) S 173 0 min 0,0 UV-I 0 W/m 11,1 C 9,5 C 24,1 km/h (4 Bft)
22.10.2022 06:00 12,9 C 12,2 C 89 % 1012,8 hPa 0,0 l/m 12,6 km/h (3 Bft) SW 219 0 min 0,0 UV-I 0 W/m 11,1 C 9,6 C 19,3 km/h (3 Bft)
22.10.2022 06:03 12,9 C 11,7 C 89 % 1013,0 hPa 0,0 l/m 12,0 km/h (2 Bft) S-SW 206 0 min 0,0 UV-I 0 W/m 11,1 C 9,9 C 24,1 km/h (4 Bft)
22.10.2022 06:06 12,8 C 11,7 C 90 % 1013,1 hPa 0,0 l/m 13,9 km/h (3 Bft) S 188 0 min 0,0 UV-I 0 W/m 11,2 C 8,9 C 19,3 km/h (3 Bft)
22.10.2022 06:09 12,8 C 11,7 C 90 % 1013,1 hPa 0,0 l/m 12,4 km/h (3 Bft) S 188 0 min 0,0 UV-I 0 W/m 11,2 C 9,6 C 19,3 km/h (3 Bft)
22.10.2022 06:12 12,7 C 11,7 C 90 % 1013,1 hPa 0,0 l/m 14,3 km/h (3 Bft) S-SW 192 0 min 0,0 UV-I 0 W/m 11,1 C 8,7 C 24,1 km/h (4 Bft)
22.10.2022 06:15 12,7 C 11,7 C 90 % 1013,0 hPa 0,0 l/m 12,0 km/h (2 Bft) S-SW 196 0 min 0,0 UV-I 0 W/m 11,1 C 9,6 C 19,3 km/h (3 Bft)
22.10.2022 06:18 12,6 C 11,7 C 90 % 1013,0 hPa 0,0 l/m 10,7 km/h (2 Bft) S 171 0 min 0,0 UV-I 0 W/m 11,0 C 10,1 C 16,1 km/h (3 Bft)
22.10.2022 06:21 12,5 C 11,1 C 90 % 1013,0 hPa 0,0 l/m 12,4 km/h (3 Bft) S-SO 168 0 min 0,0 UV-I 0 W/m 10,9 C 9,2 C 20,9 km/h (4 Bft)
22.10.2022 06:24 12,4 C 11,1 C 90 % 1013,0 hPa 0,0 l/m 12,0 km/h (2 Bft) S-SW 192 0 min 0,0 UV-I 0 W/m 10,8 C 9,3 C 19,3 km/h (3 Bft)
22.10.2022 06:27 12,4 C 11,1 C 90 % 1013,0 hPa 0,0 l/m 10,9 km/h (2 Bft) S 180 0 min 0,0 UV-I 0 W/m 10,8 C 9,8 C 17,7 km/h (3 Bft)
22.10.2022 06:30 12,3 C 11,1 C 90 % 1013,0 hPa 0,0 l/m 10,3 km/h (2 Bft) S-SW 198 0 min 0,0 UV-I 0 W/m 10,7 C 10,0 C 16,1 km/h (3 Bft)
22.10.2022 06:33 12,3 C 11,1 C 90 % 1013,1 hPa 0,0 l/m 12,7 km/h (3 Bft) S-SW 209 0 min 0,0 UV-I 0 W/m 10,7 C 8,9 C 19,3 km/h (3 Bft)
22.10.2022 06:36 12,2 C 10,6 C 89 % 1013,0 hPa 0,0 l/m 10,0 km/h (2 Bft) S-SW 192 0 min 0,0 UV-I 0 W/m 10,4 C 10,0 C 12,9 km/h (3 Bft)
22.10.2022 06:39 12,1 C 10,6 C 90 % 1013,1 hPa 0,0 l/m 10,7 km/h (2 Bft) S-SW 208 0 min 0,0 UV-I 0 W/m 10,5 C 9,6 C 14,5 km/h (3 Bft)
22.10.2022 06:42 12,0 C 10,6 C 90 % 1013,0 hPa 0,0 l/m 9,3 km/h (2 Bft) S 186 0 min 0,0 UV-I 0 W/m 10,4 C 10,2 C 12,9 km/h (3 Bft)
22.10.2022 06:45 11,9 C 10,6 C 90 % 1013,1 hPa 0,0 l/m 9,0 km/h (2 Bft) S 177 0 min 0,0 UV-I 0 W/m 10,3 C 10,2 C 12,9 km/h (3 Bft)
22.10.2022 06:48 11,8 C 10,6 C 90 % 1013,3 hPa 0,0 l/m 10,2 km/h (2 Bft) S-SW 193 0 min 0,0 UV-I 0 W/m 10,2 C 9,5 C 14,5 km/h (3 Bft)
22.10.2022 06:51 11,8 C 10,6 C 91 % 1013,2 hPa 0,0 l/m 11,2 km/h (2 Bft) S-SW 205 0 min 0,0 UV-I 0 W/m 10,4 C 9,0 C 16,1 km/h (3 Bft)
22.10.2022 06:54 11,7 C 10,6 C 91 % 1013,4 hPa 0,0 l/m 10,8 km/h (2 Bft) S 188 0 min 0,0 UV-I 0 W/m 10,3 C 9,1 C 14,5 km/h (3 Bft)
22.10.2022 06:57 11,7 C 10,6 C 91 % 1013,2 hPa 0,0 l/m 10,2 km/h (2 Bft) S 189 0 min 0,0 UV-I 0 W/m 10,3 C 9,4 C 16,1 km/h (3 Bft)
22.10.2022 07:00 11,7 C 10,6 C 91 % 1013,2 hPa 0,0 l/m 10,9 km/h (2 Bft) S-SW 196 0 min 0,0 UV-I 0 W/m 10,3 C 9,0 C 19,3 km/h (3 Bft)
22.10.2022 07:01 11,7 C 10,6 C 91 % 1013,2 hPa 0,0 l/m 9,7 km/h (2 Bft) S-SW 202 0 min 0,0 UV-I 0 W/m 10,3 C 9,6 C 12,9 km/h (3 Bft)
22.10.2022 07:03 11,7 C 10,6 C 91 % 1013,4 hPa 0,0 l/m 12,3 km/h (3 Bft) S-SW 209 0 min 0,0 UV-I 0 W/m 10,3 C 8,3 C 16,1 km/h (3 Bft)
22.10.2022 07:06 11,7 C 10,6 C 91 % 1013,4 hPa 0,0 l/m 11,0 km/h (2 Bft) S-SW 205 0 min 0,0 UV-I 0 W/m 10,3 C 9,0 C 16,1 km/h (3 Bft)
22.10.2022 07:09 11,7 C 10,6 C 91 % 1013,5 hPa 0,0 l/m 10,7 km/h (2 Bft) SW 217 0 min 0,0 UV-I 0 W/m 10,3 C 9,1 C 14,5 km/h (3 Bft)
22.10.2022 07:12 11,6 C 10,6 C 91 % 1013,5 hPa 0,0 l/m 11,1 km/h (2 Bft) S-SW 203 0 min 0,0 UV-I 0 W/m 10,2 C 8,8 C 19,3 km/h (3 Bft)
22.10.2022 07:15 11,7 C 10,6 C 91 % 1013,5 hPa 0,0 l/m 12,2 km/h (2 Bft) S 172 0 min 0,0 UV-I 0 W/m 10,3 C 8,4 C 22,5 km/h (4 Bft)
22.10.2022 07:18 11,7 C 11,1 C 91 % 1013,5 hPa 0,0 l/m 11,3 km/h (2 Bft) S 189 0 min 0,0 UV-I 0 W/m 10,3 C 8,8 C 19,3 km/h (3 Bft)
22.10.2022 07:21 11,8 C 11,1 C 91 % 1013,4 hPa 0,0 l/m 11,2 km/h (2 Bft) S-SW 198 0 min 0,0 UV-I 0 W/m 10,4 C 9,0 C 16,1 km/h (3 Bft)
22.10.2022 07:24 11,8 C 11,1 C 91 % 1013,5 hPa 0,0 l/m 11,0 km/h (2 Bft) S 169 0 min 0,0 UV-I 0 W/m 10,4 C 9,1 C 19,3 km/h (3 Bft)
22.10.2022 07:27 11,8 C 10,6 C 91 % 1013,5 hPa 0,0 l/m 11,2 km/h (2 Bft) S-SO 162 0 min 0,0 UV-I 0 W/m 10,4 C 9,0 C 19,3 km/h (3 Bft)
22.10.2022 07:30 11,8 C 11,1 C 91 % 1013,6 hPa 0,0 l/m 12,4 km/h (3 Bft) S-SW 194 0 min 0,0 UV-I 0 W/m 10,4 C 8,4 C 19,3 km/h (3 Bft)
22.10.2022 07:33 11,8 C 11,1 C 91 % 1013,6 hPa 0,0 l/m 11,1 km/h (2 Bft) S 172 0 min 0,0 UV-I 0 W/m 10,4 C 9,0 C 22,5 km/h (4 Bft)
22.10.2022 07:36 11,8 C 11,1 C 91 % 1013,6 hPa 0,0 l/m 12,4 km/h (3 Bft) S 190 0 min 0,0 UV-I 0 W/m 10,4 C 8,4 C 19,3 km/h (3 Bft)
22.10.2022 07:39 11,9 C 11,1 C 91 % 1013,6 hPa 0,0 l/m 12,3 km/h (3 Bft) S 176 0 min 0,0 UV-I 0 W/m 10,5 C 8,6 C 19,3 km/h (3 Bft)
22.10.2022 07:42 11,8 C 11,1 C 91 % 1013,6 hPa 0,0 l/m 11,5 km/h (2 Bft) S 182 0 min 0,0 UV-I 0 W/m 10,4 C 8,8 C 17,7 km/h (3 Bft)
22.10.2022 07:45 11,9 C 11,1 C 91 % 1013,6 hPa 0,0 l/m 14,1 km/h (3 Bft) S-SW 213 0 min 0,0 UV-I 0 W/m 10,5 C 7,8 C 22,5 km/h (4 Bft)
22.10.2022 07:48 11,9 C 11,1 C 91 % 1013,8 hPa 0,0 l/m 14,2 km/h (3 Bft) S 182 0 min 0,0 UV-I 0 W/m 10,5 C 7,8 C 20,9 km/h (4 Bft)
22.10.2022 07:51 11,9 C 11,1 C 91 % 1013,7 hPa 0,0 l/m 11,4 km/h (2 Bft) S 190 0 min 0,0 UV-I 0 W/m 10,5 C 9,0 C 19,3 km/h (3 Bft)
22.10.2022 07:54 11,9 C 11,1 C 91 % 1013,8 hPa 0,0 l/m 11,2 km/h (2 Bft) S-SW 200 0 min 0,0 UV-I 0 W/m 10,5 C 9,1 C 16,1 km/h (3 Bft)
22.10.2022 07:57 11,8 C 11,1 C 91 % 1013,8 hPa 0,0 l/m 11,2 km/h (2 Bft) S 191 0 min 0,0 UV-I 0 W/m 10,4 C 9,0 C 16,1 km/h (3 Bft)
22.10.2022 08:00 11,8 C 11,1 C 91 % 1013,9 hPa 0,0 l/m 13,1 km/h (3 Bft) S-SW 207 0 min 0,0 UV-I 0 W/m 10,4 C 8,1 C 20,9 km/h (4 Bft)
22.10.2022 08:03 11,9 C 11,1 C 91 % 1013,9 hPa 0,0 l/m 14,9 km/h (3 Bft) S-SO 153 0 min 0,0 UV-I 0 W/m 10,5 C 7,5 C 22,5 km/h (4 Bft)
22.10.2022 08:06 11,9 C 11,1 C 91 % 1013,9 hPa 0,0 l/m 16,4 km/h (3 Bft) S 191 0 min 0,0 UV-I 0 W/m 10,5 C 6,9 C 27,4 km/h (4 Bft)
22.10.2022 08:09 11,9 C 11,1 C 91 % 1014,0 hPa 0,0 l/m 14,5 km/h (3 Bft) S 184 0 min 0,0 UV-I 0 W/m 10,5 C 7,6 C 25,7 km/h (4 Bft)
22.10.2022 08:12 11,9 C 11,1 C 91 % 1013,9 hPa 0,0 l/m 17,2 km/h (3 Bft) S-SW 200 0 min 0,0 UV-I 0 W/m 10,5 C 6,6 C 27,4 km/h (4 Bft)
22.10.2022 08:15 11,9 C 11,1 C 90 % 1013,8 hPa 0,0 l/m 13,1 km/h (3 Bft) S 190 0 min 0,0 UV-I 0 W/m 10,3 C 8,2 C 22,5 km/h (4 Bft)
22.10.2022 08:18 11,8 C 11,1 C 90 % 1013,9 hPa 0,0 l/m 13,1 km/h (3 Bft) S-SO 168 0 min 0,0 UV-I 3 W/m 10,2 C 8,1 C 24,1 km/h (4 Bft)
22.10.2022 08:21 11,8 C 11,1 C 90 % 1013,9 hPa 0,0 l/m 12,7 km/h (3 Bft) S-SW 192 0 min 0,0 UV-I 6 W/m 10,2 C 8,3 C 24,1 km/h (4 Bft)
22.10.2022 08:24 11,8 C 11,1 C 91 % 1014,1 hPa 0,0 l/m 12,3 km/h (3 Bft) S 186 0 min 0,0 UV-I 7 W/m 10,4 C 8,4 C 22,5 km/h (4 Bft)
22.10.2022 08:27 11,8 C 11,1 C 91 % 1014,1 hPa 0,0 l/m 12,8 km/h (3 Bft) S-SO 167 0 min 0,0 UV-I 17 W/m 10,4 C 8,2 C 20,9 km/h (4 Bft)
22.10.2022 08:30 11,8 C 11,1 C 91 % 1014,0 hPa 0,0 l/m 13,9 km/h (3 Bft) S 189 0 min 0,0 UV-I 20 W/m 10,4 C 7,8 C 25,7 km/h (4 Bft)
22.10.2022 08:33 11,8 C 11,1 C 91 % 1014,2 hPa 0,0 l/m 13,6 km/h (3 Bft) SW 227 0 min 0,0 UV-I 27 W/m 10,4 C 7,9 C 25,7 km/h (4 Bft)
22.10.2022 08:36 11,8 C 11,1 C 91 % 1014,1 hPa 0,0 l/m 14,9 km/h (3 Bft) S 171 0 min 0,0 UV-I 19 W/m 10,4 C 7,4 C 20,9 km/h (4 Bft)
22.10.2022 08:39 11,8 C 11,1 C 91 % 1014,2 hPa 0,0 l/m 11,7 km/h (2 Bft) S 173 0 min 0,0 UV-I 15 W/m 10,4 C 8,7 C 20,9 km/h (4 Bft)
22.10.2022 08:42 11,8 C 11,1 C 91 % 1014,3 hPa 0,0 l/m 14,0 km/h (3 Bft) S-SW 201 0 min 0,0 UV-I 12 W/m 10,4 C 7,7 C 20,9 km/h (4 Bft)
22.10.2022 08:45 11,8 C 11,1 C 90 % 1014,4 hPa 0,0 l/m 16,2 km/h (3 Bft) S-SO 167 0 min 0,0 UV-I 17 W/m 10,2 C 6,9 C 25,7 km/h (4 Bft)
22.10.2022 08:48 11,9 C 11,7 C 90 % 1014,3 hPa 0,0 l/m 15,6 km/h (3 Bft) S-SW 193 0 min 0,0 UV-I 44 W/m 10,3 C 7,2 C 25,7 km/h (4 Bft)
22.10.2022 08:51 11,9 C 11,7 C 90 % 1014,4 hPa 0,0 l/m 15,6 km/h (3 Bft) S-SW 199 0 min 0,0 UV-I 44 W/m 10,3 C 7,2 C 24,1 km/h (4 Bft)
22.10.2022 08:54 11,9 C 11,7 C 90 % 1014,4 hPa 0,0 l/m 16,6 km/h (3 Bft) S 189 0 min 0,0 UV-I 32 W/m 10,3 C 6,8 C 24,1 km/h (4 Bft)
22.10.2022 08:57 11,9 C 11,7 C 90 % 1014,4 hPa 0,0 l/m 12,0 km/h (2 Bft) S 186 0 min 0,0 UV-I 33 W/m 10,3 C 8,7 C 17,7 km/h (3 Bft)
22.10.2022 09:00 11,9 C 11,7 C 90 % 1014,5 hPa 0,0 l/m 13,3 km/h (3 Bft) S-SO 163 0 min 0,0 UV-I 48 W/m 10,3 C 8,1 C 24,1 km/h (4 Bft)
22.10.2022 09:03 11,9 C 11,7 C 90 % 1014,4 hPa 0,0 l/m 12,7 km/h (3 Bft) S-SO 168 0 min 0,0 UV-I 43 W/m 10,3 C 8,4 C 20,9 km/h (4 Bft)
22.10.2022 09:06 12,0 C 11,7 C 90 % 1014,6 hPa 0,0 l/m 15,9 km/h (3 Bft) S 187 0 min 0,0 UV-I 51 W/m 10,4 C 7,2 C 27,4 km/h (4 Bft)
22.10.2022 09:09 12,1 C 11,7 C 90 % 1014,5 hPa 0,0 l/m 14,8 km/h (3 Bft) S-SW 197 0 min 0,0 UV-I 56 W/m 10,5 C 7,8 C 27,4 km/h (4 Bft)
22.10.2022 09:12 12,1 C 11,7 C 90 % 1014,5 hPa 0,0 l/m 14,5 km/h (3 Bft) S 175 0 min 0,0 UV-I 47 W/m 10,5 C 7,9 C 25,7 km/h (4 Bft)
22.10.2022 09:15 12,1 C 11,7 C 90 % 1014,5 hPa 0,0 l/m 14,3 km/h (3 Bft) S-SW 211 0 min 0,0 UV-I 37 W/m 10,5 C 8,0 C 22,5 km/h (4 Bft)
22.10.2022 09:18 12,1 C 11,7 C 89 % 1014,7 hPa 0,0 l/m 19,9 km/h (4 Bft) S-SW 210 0 min 0,0 UV-I 32 W/m 10,3 C 6,0 C 29,0 km/h (5 Bft)
22.10.2022 09:21 12,2 C 11,7 C 89 % 1014,6 hPa 0,0 l/m 20,0 km/h (4 Bft) S 184 0 min 0,0 UV-I 27 W/m 10,4 C 6,1 C 29,0 km/h (5 Bft)
22.10.2022 09:24 12,2 C 11,7 C 89 % 1014,6 hPa 0,0 l/m 20,0 km/h (4 Bft) S-SW 194 0 min 0,0 UV-I 43 W/m 10,4 C 6,1 C 30,6 km/h (5 Bft)
22.10.2022 09:27 12,2 C 11,7 C 89 % 1014,6 hPa 0,0 l/m 21,0 km/h (4 Bft) S-SW 201 0 min 0,0 UV-I 51 W/m 10,4 C 5,8 C 30,6 km/h (5 Bft)
22.10.2022 09:30 12,2 C 12,2 C 89 % 1014,6 hPa 0,0 l/m 16,0 km/h (3 Bft) S 169 0 min 0,0 UV-I 77 W/m 10,4 C 7,4 C 24,1 km/h (4 Bft)
22.10.2022 09:33 12,3 C 12,2 C 89 % 1014,6 hPa 0,0 l/m 17,9 km/h (3 Bft) S 182 0 min 0,0 UV-I 69 W/m 10,5 C 6,9 C 27,4 km/h (4 Bft)
22.10.2022 09:36 12,3 C 12,2 C 89 % 1014,6 hPa 0,0 l/m 18,5 km/h (3 Bft) S 170 0 min 0,0 UV-I 55 W/m 10,5 C 6,7 C 32,2 km/h (5 Bft)
22.10.2022 09:39 12,3 C 11,7 C 89 % 1014,8 hPa 0,0 l/m 20,1 km/h (4 Bft) S-SW 205 0 min 0,0 UV-I 55 W/m 10,5 C 6,2 C 40,2 km/h (6 Bft)
22.10.2022 09:42 12,2 C 11,7 C 89 % 1014,8 hPa 0,0 l/m 16,5 km/h (3 Bft) S-SW 205 0 min 0,0 UV-I 52 W/m 10,4 C 7,3 C 25,7 km/h (4 Bft)
22.10.2022 09:45 12,2 C 11,7 C 89 % 1015,0 hPa 0,0 l/m 17,0 km/h (3 Bft) S 185 0 min 0,1 UV-I 55 W/m 10,4 C 7,1 C 27,4 km/h (4 Bft)
22.10.2022 09:48 12,3 C 12,2 C 89 % 1015,0 hPa 0,0 l/m 17,9 km/h (3 Bft) SW 227 0 min 0,5 UV-I 96 W/m 10,5 C 6,9 C 30,6 km/h (5 Bft)
22.10.2022 09:51 12,3 C 12,2 C 89 % 1015,0 hPa 0,0 l/m 20,5 km/h (4 Bft) S-SW 196 0 min 0,5 UV-I 107 W/m 10,5 C 6,1 C 33,8 km/h (5 Bft)
22.10.2022 09:54 12,4 C 12,2 C 88 % 1014,9 hPa 0,0 l/m 19,8 km/h (3 Bft) S-SW 203 0 min 0,5 UV-I 78 W/m 10,5 C 6,4 C 30,6 km/h (5 Bft)
22.10.2022 09:57 12,4 C 12,2 C 88 % 1014,9 hPa 0,0 l/m 16,4 km/h (3 Bft) SW 220 0 min 0,5 UV-I 72 W/m 10,5 C 7,5 C 27,4 km/h (4 Bft)
22.10.2022 10:00 12,4 C 12,2 C 88 % 1014,9 hPa 0,0 l/m 17,1 km/h (3 Bft) SW 218 0 min 0,4 UV-I 68 W/m 10,5 C 7,3 C 27,4 km/h (4 Bft)
22.10.2022 10:03 12,4 C 12,2 C 88 % 1015,0 hPa 0,0 l/m 20,0 km/h (4 Bft) SW 216 0 min 0,6 UV-I 70 W/m 10,5 C 6,4 C 33,8 km/h (5 Bft)
22.10.2022 10:06 12,4 C 12,2 C 88 % 1015,0 hPa 0,0 l/m 16,3 km/h (3 Bft) S 172 0 min 0,6 UV-I 87 W/m 10,5 C 7,6 C 24,1 km/h (4 Bft)
22.10.2022 10:09 12,5 C 12,8 C 89 % 1015,1 hPa 0,0 l/m 18,2 km/h (3 Bft) SW 214 0 min 0,7 UV-I 136 W/m 10,7 C 7,1 C 25,7 km/h (4 Bft)
22.10.2022 10:12 12,7 C 13,3 C 89 % 1014,9 hPa 0,0 l/m 16,6 km/h (3 Bft) S 178 0 min 0,7 UV-I 202 W/m 10,9 C 7,8 C 25,7 km/h (4 Bft)
22.10.2022 10:15 12,9 C 13,3 C 88 % 1015,0 hPa 0,0 l/m 15,4 km/h (3 Bft) S-SW 202 0 min 0,6 UV-I 161 W/m 11,0 C 8,5 C 27,4 km/h (4 Bft)
22.10.2022 10:18 12,9 C 13,3 C 88 % 1015,1 hPa 0,0 l/m 17,3 km/h (3 Bft) S-SW 206 0 min 0,3 UV-I 99 W/m 11,0 C 7,9 C 29,0 km/h (5 Bft)
22.10.2022 10:21 12,9 C 12,8 C 88 % 1015,2 hPa 0,0 l/m 15,9 km/h (3 Bft) S-SO 165 0 min 0,0 UV-I 81 W/m 11,0 C 8,3 C 27,4 km/h (4 Bft)
22.10.2022 10:24 12,8 C 12,8 C 88 % 1015,2 hPa 0,0 l/m 17,3 km/h (3 Bft) SW 224 0 min 0,0 UV-I 69 W/m 10,9 C 7,7 C 30,6 km/h (5 Bft)
22.10.2022 10:27 12,7 C 12,8 C 88 % 1015,3 hPa 0,0 l/m 16,9 km/h (3 Bft) S-SW 193 0 min 0,0 UV-I 76 W/m 10,8 C 7,7 C 30,6 km/h (5 Bft)
22.10.2022 10:30 12,7 C 12,8 C 88 % 1015,3 hPa 0,0 l/m 18,3 km/h (3 Bft) S 175 0 min 0,1 UV-I 86 W/m 10,8 C 7,3 C 29,0 km/h (5 Bft)
22.10.2022 10:33 12,7 C 12,8 C 88 % 1015,3 hPa 0,0 l/m 15,3 km/h (3 Bft) S 180 0 min 0,2 UV-I 86 W/m 10,8 C 8,3 C 25,7 km/h (4 Bft)
22.10.2022 10:36 12,6 C 12,8 C 88 % 1015,4 hPa 0,0 l/m 19,9 km/h (4 Bft) S 172 0 min 0,2 UV-I 89 W/m 10,7 C 6,7 C 27,4 km/h (4 Bft)
22.10.2022 10:39 12,6 C 12,8 C 88 % 1015,5 hPa 0,0 l/m 16,2 km/h (3 Bft) S 188 0 min 0,3 UV-I 94 W/m 10,7 C 7,9 C 30,6 km/h (5 Bft)
22.10.2022 10:42 12,7 C 12,8 C 89 % 1015,3 hPa 0,0 l/m 12,0 km/h (2 Bft) SW 214 0 min 0,0 UV-I 88 W/m 10,9 C 9,6 C 22,5 km/h (4 Bft)
22.10.2022 10:45 12,6 C 12,8 C 89 % 1015,6 hPa 0,0 l/m 15,3 km/h (3 Bft) S-SW 203 0 min 0,3 UV-I 98 W/m 10,8 C 8,2 C 24,1 km/h (4 Bft)
22.10.2022 10:48 12,7 C 12,8 C 89 % 1015,6 hPa 0,0 l/m 15,6 km/h (3 Bft) SW 215 0 min 0,6 UV-I 108 W/m 10,9 C 8,2 C 25,7 km/h (4 Bft)
22.10.2022 10:51 12,8 C 13,3 C 89 % 1015,6 hPa 0,0 l/m 14,1 km/h (3 Bft) S-SW 193 0 min 0,6 UV-I 137 W/m 11,0 C 8,9 C 20,9 km/h (4 Bft)
22.10.2022 10:54 12,8 C 13,3 C 89 % 1015,6 hPa 0,0 l/m 16,3 km/h (3 Bft) SW 215 0 min 0,8 UV-I 146 W/m 11,0 C 8,1 C 29,0 km/h (5 Bft)
22.10.2022 10:57 12,8 C 13,3 C 88 % 1015,6 hPa 0,0 l/m 20,9 km/h (4 Bft) S 190 0 min 0,7 UV-I 140 W/m 10,9 C 6,7 C 37,0 km/h (5 Bft)
22.10.2022 11:00 12,9 C 13,3 C 88 % 1015,7 hPa 0,0 l/m 20,9 km/h (4 Bft) S 170 0 min 0,8 UV-I 139 W/m 11,0 C 6,8 C 33,8 km/h (5 Bft)
22.10.2022 11:03 12,9 C 13,3 C 88 % 1015,7 hPa 0,0 l/m 19,4 km/h (3 Bft) S 171 0 min 0,6 UV-I 123 W/m 11,0 C 7,2 C 29,0 km/h (5 Bft)
22.10.2022 11:06 12,9 C 13,3 C 88 % 1015,7 hPa 0,0 l/m 18,1 km/h (3 Bft) S 178 0 min 0,7 UV-I 139 W/m 11,0 C 7,6 C 27,4 km/h (4 Bft)
22.10.2022 11:09 12,9 C 13,3 C 88 % 1015,8 hPa 0,0 l/m 20,1 km/h (4 Bft) S-SW 194 0 min 0,7 UV-I 144 W/m 11,0 C 7,0 C 30,6 km/h (5 Bft)
22.10.2022 11:12 12,9 C 12,8 C 88 % 1015,8 hPa 0,0 l/m 18,4 km/h (3 Bft) S-SW 208 0 min 0,6 UV-I 113 W/m 11,0 C 7,5 C 27,4 km/h (4 Bft)
22.10.2022 11:15 13,0 C 13,3 C 88 % 1015,8 hPa 0,0 l/m 15,3 km/h (3 Bft) S 174 0 min 0,7 UV-I 132 W/m 11,1 C 8,7 C 24,1 km/h (4 Bft)
22.10.2022 11:18 12,9 C 12,8 C 87 % 1015,9 hPa 0,0 l/m 19,7 km/h (3 Bft) S 182 0 min 0,5 UV-I 94 W/m 10,8 C 7,1 C 32,2 km/h (5 Bft)
22.10.2022 11:21 12,9 C 12,8 C 88 % 1015,8 hPa 0,0 l/m 15,8 km/h (3 Bft) S 178 0 min 0,6 UV-I 107 W/m 11,0 C 8,4 C 30,6 km/h (5 Bft)
22.10.2022 11:24 12,9 C 12,8 C 88 % 1015,9 hPa 0,0 l/m 12,8 km/h (3 Bft) SW 217 0 min 0,5 UV-I 105 W/m 11,0 C 9,5 C 24,1 km/h (4 Bft)
22.10.2022 11:27 12,9 C 13,3 C 88 % 1016,0 hPa 0,0 l/m 15,6 km/h (3 Bft) S-SW 195 0 min 0,7 UV-I 124 W/m 11,0 C 8,4 C 27,4 km/h (4 Bft)
22.10.2022 11:30 12,9 C 13,3 C 88 % 1016,1 hPa 0,0 l/m 13,3 km/h (3 Bft) S 182 0 min 0,7 UV-I 131 W/m 11,0 C 9,3 C 24,1 km/h (4 Bft)
22.10.2022 11:33 13,0 C 13,3 C 88 % 1016,2 hPa 0,0 l/m 16,3 km/h (3 Bft) S 169 0 min 0,7 UV-I 136 W/m 11,1 C 8,3 C 25,7 km/h (4 Bft)
22.10.2022 11:36 13,0 C 13,3 C 88 % 1016,2 hPa 0,0 l/m 16,5 km/h (3 Bft) S-SW 209 0 min 0,7 UV-I 127 W/m 11,1 C 8,2 C 32,2 km/h (5 Bft)
22.10.2022 11:39 13,0 C 13,3 C 88 % 1016,1 hPa 0,0 l/m 16,6 km/h (3 Bft) SW 219 0 min 0,6 UV-I 105 W/m 11,1 C 8,2 C 25,7 km/h (4 Bft)
22.10.2022 11:42 13,0 C 12,8 C 87 % 1016,2 hPa 0,0 l/m 21,6 km/h (4 Bft) S 183 0 min 0,5 UV-I 93 W/m 10,9 C 6,7 C 30,6 km/h (5 Bft)
22.10.2022 11:45 13,0 C 13,3 C 87 % 1016,2 hPa 0,0 l/m 15,2 km/h (3 Bft) S 171 0 min 0,6 UV-I 102 W/m 10,9 C 8,7 C 24,1 km/h (4 Bft)
22.10.2022 11:48 13,1 C 13,3 C 87 % 1016,2 hPa 0,0 l/m 14,6 km/h (3 Bft) S-SW 196 0 min 0,7 UV-I 125 W/m 11,0 C 9,0 C 29,0 km/h (5 Bft)
22.10.2022 11:51 13,1 C 13,3 C 87 % 1016,3 hPa 0,0 l/m 12,2 km/h (2 Bft) S 178 0 min 0,7 UV-I 135 W/m 11,0 C 10,0 C 17,7 km/h (3 Bft)
22.10.2022 11:54 13,2 C 13,3 C 86 % 1016,3 hPa 0,0 l/m 13,3 km/h (3 Bft) S 191 0 min 0,8 UV-I 137 W/m 10,9 C 9,7 C 27,4 km/h (4 Bft)
22.10.2022 11:57 13,2 C 13,3 C 85 % 1016,2 hPa 0,0 l/m 18,9 km/h (3 Bft) SW 217 0 min 0,7 UV-I 121 W/m 10,7 C 7,7 C 27,4 km/h (4 Bft)
22.10.2022 12:00 13,2 C 13,3 C 85 % 1016,4 hPa 0,0 l/m 14,3 km/h (3 Bft) SW 232 0 min 0,6 UV-I 98 W/m 10,7 C 9,3 C 22,5 km/h (4 Bft)
22.10.2022 12:03 13,2 C 13,3 C 85 % 1016,4 hPa 0,0 l/m 15,5 km/h (3 Bft) SW 223 0 min 0,5 UV-I 88 W/m 10,7 C 8,8 C 24,1 km/h (4 Bft)
22.10.2022 12:06 13,2 C 13,3 C 85 % 1016,5 hPa 0,0 l/m 13,9 km/h (3 Bft) SW 217 0 min 0,7 UV-I 126 W/m 10,7 C 9,4 C 24,1 km/h (4 Bft)
22.10.2022 12:09 13,2 C 13,3 C 85 % 1016,6 hPa 0,0 l/m 17,5 km/h (3 Bft) S 178 0 min 0,7 UV-I 124 W/m 10,7 C 8,2 C 29,0 km/h (5 Bft)
22.10.2022 12:12 13,1 C 13,3 C 85 % 1016,6 hPa 0,0 l/m 18,4 km/h (3 Bft) SW 216 0 min 0,6 UV-I 113 W/m 10,6 C 7,8 C 30,6 km/h (5 Bft)
22.10.2022 12:15 13,1 C 13,3 C 85 % 1016,6 hPa 0,0 l/m 20,2 km/h (4 Bft) S-SW 192 0 min 0,5 UV-I 96 W/m 10,6 C 7,2 C 29,0 km/h (5 Bft)
22.10.2022 12:18 13,2 C 13,3 C 85 % 1016,6 hPa 0,0 l/m 17,2 km/h (3 Bft) SW 221 0 min 0,7 UV-I 119 W/m 10,7 C 8,3 C 24,1 km/h (4 Bft)
22.10.2022 12:21 13,2 C 13,3 C 84 % 1016,5 hPa 0,0 l/m 16,4 km/h (3 Bft) S-SW 212 0 min 0,8 UV-I 148 W/m 10,6 C 8,5 C 27,4 km/h (4 Bft)
22.10.2022 12:24 13,3 C 13,9 C 84 % 1016,5 hPa 0,0 l/m 11,5 km/h (2 Bft) S 184 0 min 0,9 UV-I 170 W/m 10,7 C 10,5 C 16,1 km/h (3 Bft)
22.10.2022 12:27 13,4 C 13,9 C 84 % 1016,5 hPa 0,0 l/m 9,7 km/h (2 Bft) SW 216 0 min 1,0 UV-I 157 W/m 10,8 C 11,5 C 16,1 km/h (3 Bft)
22.10.2022 12:30 13,4 C 13,9 C 84 % 1016,6 hPa 0,0 l/m 9,9 km/h (2 Bft) S-SW 207 0 min 0,9 UV-I 149 W/m 10,8 C 11,4 C 16,1 km/h (3 Bft)
22.10.2022 12:33 13,3 C 13,9 C 84 % 1016,6 hPa 0,0 l/m 14,8 km/h (3 Bft) S-SW 212 0 min 0,8 UV-I 129 W/m 10,7 C 9,2 C 22,5 km/h (4 Bft)
22.10.2022 12:36 13,3 C 13,3 C 84 % 1016,7 hPa 0,0 l/m 15,4 km/h (3 Bft) SW 229 0 min 0,6 UV-I 110 W/m 10,7 C 9,0 C 24,1 km/h (4 Bft)
22.10.2022 12:39 13,3 C 13,3 C 84 % 1016,7 hPa 0,0 l/m 13,2 km/h (3 Bft) S 181 0 min 0,4 UV-I 91 W/m 10,7 C 9,8 C 22,5 km/h (4 Bft)
22.10.2022 12:42 13,2 C 13,3 C 84 % 1016,8 hPa 0,0 l/m 12,0 km/h (2 Bft) S-SW 213 0 min 0,5 UV-I 85 W/m 10,6 C 10,2 C 19,3 km/h (3 Bft)
22.10.2022 12:45 13,2 C 13,3 C 85 % 1016,8 hPa 0,0 l/m 11,1 km/h (2 Bft) S-SW 208 0 min 0,5 UV-I 92 W/m 10,7 C 10,6 C 16,1 km/h (3 Bft)
22.10.2022 12:48 13,2 C 13,3 C 84 % 1016,8 hPa 0,0 l/m 13,1 km/h (3 Bft) S-SW 195 0 min 0,6 UV-I 106 W/m 10,6 C 9,7 C 25,7 km/h (4 Bft)
22.10.2022 12:51 13,2 C 13,3 C 84 % 1016,9 hPa 0,0 l/m 13,9 km/h (3 Bft) SW 216 0 min 0,6 UV-I 107 W/m 10,6 C 9,4 C 24,1 km/h (4 Bft)
22.10.2022 12:54 13,3 C 15,0 C 85 % 1016,6 hPa 0,0 l/m 9,3 km/h (2 Bft) S-SW 197 0 min 1,4 UV-I 231 W/m 10,8 C 11,6 C 17,7 km/h (3 Bft)
22.10.2022 12:57 13,4 C 15,0 C 84 % 1016,7 hPa 0,0 l/m 12,5 km/h (3 Bft) S 189 0 min 1,3 UV-I 228 W/m 10,8 C 10,2 C 17,7 km/h (3 Bft)
22.10.2022 13:00 13,6 C 15,6 C 84 % 1016,6 hPa 0,0 l/m 11,4 km/h (2 Bft) S 191 0 min 1,5 UV-I 267 W/m 10,9 C 10,9 C 17,7 km/h (3 Bft)
22.10.2022 13:03 13,7 C 16,1 C 84 % 1016,6 hPa 0,0 l/m 9,6 km/h (2 Bft) S-SW 210 0 min 1,4 UV-I 225 W/m 11,0 C 11,9 C 16,1 km/h (3 Bft)
22.10.2022 13:06 13,9 C 16,1 C 84 % 1016,6 hPa 0,0 l/m 15,5 km/h (3 Bft) W 274 0 min 1,4 UV-I 275 W/m 11,2 C 9,7 C 27,4 km/h (4 Bft)
22.10.2022 13:09 13,9 C 16,1 C 83 % 1016,7 hPa 0,0 l/m 14,8 km/h (3 Bft) S-SW 198 0 min 1,4 UV-I 253 W/m 11,1 C 9,9 C 30,6 km/h (5 Bft)
22.10.2022 13:12 14,1 C 16,1 C 83 % 1016,7 hPa 0,0 l/m 13,8 km/h (3 Bft) SW 214 0 min 1,6 UV-I 262 W/m 11,3 C 10,5 C 22,5 km/h (4 Bft)
22.10.2022 13:15 13,9 C 15,0 C 82 % 1016,7 hPa 0,0 l/m 18,2 km/h (3 Bft) SW 215 0 min 1,5 UV-I 201 W/m 10,9 C 8,8 C 29,0 km/h (5 Bft)
22.10.2022 13:18 13,9 C 15,6 C 83 % 1016,7 hPa 0,0 l/m 10,1 km/h (2 Bft) S-SW 198 0 min 1,5 UV-I 199 W/m 11,1 C 11,9 C 17,7 km/h (3 Bft)
22.10.2022 13:21 14,0 C 15,6 C 82 % 1016,6 hPa 0,0 l/m 15,2 km/h (3 Bft) S-SW 197 0 min 1,5 UV-I 240 W/m 11,0 C 9,9 C 25,7 km/h (4 Bft)
22.10.2022 13:24 14,1 C 15,0 C 83 % 1016,7 hPa 0,0 l/m 13,3 km/h (3 Bft) S 181 0 min 1,2 UV-I 204 W/m 11,3 C 10,7 C 22,5 km/h (4 Bft)
22.10.2022 13:27 14,1 C 14,4 C 82 % 1016,7 hPa 0,0 l/m 13,8 km/h (3 Bft) S-SW 204 0 min 0,9 UV-I 139 W/m 11,1 C 10,5 C 20,9 km/h (4 Bft)
22.10.2022 13:30 14,0 C 14,4 C 82 % 1016,7 hPa 0,0 l/m 11,4 km/h (2 Bft) S-SO 167 0 min 0,7 UV-I 126 W/m 11,0 C 11,4 C 16,1 km/h (3 Bft)
22.10.2022 13:33 14,1 C 14,4 C 83 % 1016,8 hPa 0,0 l/m 8,2 km/h (2 Bft) SW 218 0 min 0,7 UV-I 119 W/m 11,3 C 13,0 C 12,9 km/h (3 Bft)
22.10.2022 13:36 14,1 C 13,9 C 82 % 1016,7 hPa 0,0 l/m 11,9 km/h (2 Bft) S-SW 203 0 min 0,4 UV-I 80 W/m 11,1 C 11,3 C 17,7 km/h (3 Bft)
22.10.2022 13:39 13,9 C 13,9 C 82 % 1016,7 hPa 0,0 l/m 12,0 km/h (2 Bft) S-SW 204 0 min 0,0 UV-I 52 W/m 10,9 C 11,0 C 17,7 km/h (3 Bft)
22.10.2022 13:42 13,9 C 13,3 C 83 % 1016,7 hPa 0,0 l/m 9,3 km/h (2 Bft) SW 220 0 min 0,0 UV-I 36 W/m 11,1 C 12,2 C 14,5 km/h (3 Bft)
22.10.2022 13:45 13,9 C 13,3 C 83 % 1016,7 hPa 0,0 l/m 8,5 km/h (2 Bft) S 180 0 min 0,0 UV-I 35 W/m 11,1 C 12,7 C 12,9 km/h (3 Bft)
22.10.2022 13:48 13,8 C 12,8 C 83 % 1016,7 hPa 0,0 l/m 11,0 km/h (2 Bft) S-SW 198 0 min 0,0 UV-I 29 W/m 11,0 C 11,3 C 19,3 km/h (3 Bft)
22.10.2022 13:51 13,8 C 12,8 C 84 % 1016,7 hPa 0,0 l/m 6,7 km/h (2 Bft) S-SW 200 0 min 0,0 UV-I 40 W/m 11,1 C 13,6 C 11,3 km/h (2 Bft)
22.10.2022 13:54 13,7 C 12,8 C 84 % 1016,8 hPa 0,0 l/m 10,0 km/h (2 Bft) S-SW 200 0 min 0,0 UV-I 52 W/m 11,0 C 11,7 C 17,7 km/h (3 Bft)
22.10.2022 13:57 13,6 C 12,8 C 85 % 1016,8 hPa 0,0 l/m 8,8 km/h (2 Bft) S-SW 205 0 min 0,0 UV-I 53 W/m 11,1 C 12,2 C 14,5 km/h (3 Bft)
22.10.2022 14:00 13,5 C 13,3 C 86 % 1016,8 hPa 0,0 l/m 7,4 km/h (2 Bft) S-SW 201 0 min 0,3 UV-I 97 W/m 11,2 C 12,9 C 9,7 km/h (2 Bft)
22.10.2022 14:03 13,6 C 13,9 C 87 % 1016,7 hPa 0,0 l/m 10,8 km/h (2 Bft) S-SW 198 0 min 1,2 UV-I 216 W/m 11,5 C 11,2 C 19,3 km/h (3 Bft)
22.10.2022 14:06 13,7 C 15,6 C 87 % 1016,7 hPa 0,0 l/m 11,8 km/h (2 Bft) S 182 0 min 1,5 UV-I 281 W/m 11,6 C 10,9 C 16,1 km/h (3 Bft)
22.10.2022 14:09 13,9 C 16,1 C 87 % 1016,7 hPa 0,0 l/m 6,6 km/h (2 Bft) S-SW 207 3 min 1,6 UV-I 321 W/m 11,8 C 13,8 C 14,5 km/h (3 Bft)
22.10.2022 14:12 14,2 C 16,7 C 87 % 1016,6 hPa 0,0 l/m 7,7 km/h (2 Bft) S-SW 196 0 min 1,3 UV-I 234 W/m 12,1 C 13,4 C 12,9 km/h (3 Bft)
22.10.2022 14:15 14,2 C 15,6 C 86 % 1016,5 hPa 0,0 l/m 9,3 km/h (2 Bft) W-SW 238 0 min 0,9 UV-I 134 W/m 11,9 C 12,6 C 19,3 km/h (3 Bft)
22.10.2022 14:18 14,2 C 15,0 C 86 % 1016,6 hPa 0,0 l/m 8,8 km/h (2 Bft) S-SW 205 0 min 0,6 UV-I 104 W/m 11,9 C 12,8 C 16,1 km/h (3 Bft)
22.10.2022 14:21 14,2 C 15,0 C 86 % 1016,5 hPa 0,0 l/m 6,5 km/h (2 Bft) SW 219 0 min 0,6 UV-I 106 W/m 11,9 C 14,2 C 12,9 km/h (3 Bft)
22.10.2022 14:24 14,3 C 15,6 C 86 % 1016,5 hPa 0,0 l/m 8,5 km/h (2 Bft) S-SW 202 0 min 0,9 UV-I 180 W/m 12,0 C 13,1 C 14,5 km/h (3 Bft)
22.10.2022 14:27 14,4 C 16,1 C 85 % 1016,5 hPa 0,0 l/m 9,8 km/h (2 Bft) SW 226 0 min 1,3 UV-I 255 W/m 11,9 C 12,5 C 16,1 km/h (3 Bft)
22.10.2022 14:30 14,6 C 16,1 C 84 % 1016,6 hPa 0,0 l/m 12,3 km/h (3 Bft) S-SW 193 0 min 1,4 UV-I 265 W/m 11,9 C 11,7 C 20,9 km/h (4 Bft)
22.10.2022 14:33 14,7 C 16,1 C 84 % 1016,5 hPa 0,0 l/m 13,7 km/h (3 Bft) SW 233 0 min 1,2 UV-I 223 W/m 12,0 C 11,3 C 22,5 km/h (4 Bft)
22.10.2022 14:36 14,7 C 16,7 C 82 % 1016,6 hPa 0,0 l/m 14,3 km/h (3 Bft) S-SW 204 0 min 1,4 UV-I 243 W/m 11,7 C 11,1 C 22,5 km/h (4 Bft)
22.10.2022 14:39 15,1 C 18,9 C 83 % 1016,4 hPa 0,0 l/m 11,0 km/h (2 Bft) SW 222 0 min 1,9 UV-I 259 W/m 12,2 C 12,8 C 19,3 km/h (3 Bft)
22.10.2022 14:42 15,3 C 18,3 C 81 % 1016,5 hPa 0,0 l/m 12,1 km/h (2 Bft) S 189 0 min 1,4 UV-I 223 W/m 12,1 C 12,6 C 19,3 km/h (3 Bft)
22.10.2022 14:45 15,1 C 16,7 C 80 % 1016,5 hPa 0,0 l/m 14,8 km/h (3 Bft) SW 225 0 min 1,3 UV-I 174 W/m 11,7 C 11,4 C 25,7 km/h (4 Bft)
22.10.2022 14:48 14,9 C 15,6 C 81 % 1016,5 hPa 0,0 l/m 16,0 km/h (3 Bft) S-SW 201 0 min 1,2 UV-I 160 W/m 11,7 C 10,7 C 22,5 km/h (4 Bft)
22.10.2022 14:51 14,9 C 16,1 C 81 % 1016,5 hPa 0,0 l/m 10,3 km/h (2 Bft) S 182 0 min 1,2 UV-I 178 W/m 11,7 C 12,9 C 17,7 km/h (3 Bft)
22.10.2022 14:54 15,0 C 16,1 C 81 % 1016,4 hPa 0,0 l/m 11,1 km/h (2 Bft) SW 216 0 min 1,1 UV-I 171 W/m 11,8 C 12,6 C 16,1 km/h (3 Bft)
22.10.2022 14:57 14,9 C 15,6 C 80 % 1016,4 hPa 0,0 l/m 14,4 km/h (3 Bft) S-SW 202 0 min 1,0 UV-I 169 W/m 11,5 C 11,3 C 20,9 km/h (4 Bft)
22.10.2022 15:00 15,0 C 15,6 C 81 % 1016,4 hPa 0,0 l/m 11,6 km/h (2 Bft) W-SW 239 0 min 0,9 UV-I 162 W/m 11,8 C 12,4 C 22,5 km/h (4 Bft)
22.10.2022 15:03 14,9 C 15,6 C 81 % 1016,4 hPa 0,0 l/m 11,0 km/h (2 Bft) S-SW 198 0 min 0,8 UV-I 135 W/m 11,7 C 12,6 C 17,7 km/h (3 Bft)
22.10.2022 15:06 14,9 C 15,0 C 80 % 1016,4 hPa 0,0 l/m 12,4 km/h (3 Bft) S-SW 192 0 min 0,5 UV-I 97 W/m 11,5 C 12,0 C 22,5 km/h (4 Bft)
22.10.2022 15:09 14,9 C 15,0 C 80 % 1016,4 hPa 0,0 l/m 11,5 km/h (2 Bft) S-SW 208 0 min 0,1 UV-I 86 W/m 11,5 C 12,4 C 22,5 km/h (4 Bft)
22.10.2022 15:12 14,9 C 16,1 C 81 % 1016,4 hPa 0,0 l/m 11,2 km/h (2 Bft) S 171 0 min 1,0 UV-I 129 W/m 11,7 C 12,5 C 19,3 km/h (3 Bft)
22.10.2022 15:15 15,2 C 18,9 C 80 % 1016,4 hPa 0,0 l/m 11,0 km/h (2 Bft) S-SW 198 0 min 1,3 UV-I 180 W/m 11,8 C 12,9 C 16,1 km/h (3 Bft)
22.10.2022 15:18 15,4 C 20,0 C 80 % 1016,4 hPa 0,0 l/m 10,3 km/h (2 Bft) S-SW 200 3 min 1,4 UV-I 395 W/m 12,0 C 13,4 C 16,1 km/h (3 Bft)
22.10.2022 15:21 15,5 C 20,0 C 79 % 1016,4 hPa 0,0 l/m 14,3 km/h (3 Bft) S-SW 198 3 min 1,4 UV-I 457 W/m 11,9 C 12,0 C 22,5 km/h (4 Bft)
22.10.2022 15:24 15,6 C 18,9 C 79 % 1016,4 hPa 0,0 l/m 15,5 km/h (3 Bft) S-SW 192 3 min 1,2 UV-I 311 W/m 12,0 C 11,8 C 22,5 km/h (4 Bft)
22.10.2022 15:27 15,6 C 18,3 C 78 % 1016,6 hPa 0,0 l/m 18,7 km/h (3 Bft) S-SW 194 0 min 1,3 UV-I 256 W/m 11,8 C 10,9 C 35,4 km/h (5 Bft)
22.10.2022 15:30 15,6 C 18,9 C 79 % 1016,5 hPa 0,0 l/m 14,3 km/h (3 Bft) S-SW 212 0 min 1,2 UV-I 229 W/m 12,0 C 12,1 C 24,1 km/h (4 Bft)
22.10.2022 15:33 15,6 C 17,8 C 78 % 1016,5 hPa 0,0 l/m 20,6 km/h (4 Bft) SW 216 0 min 1,1 UV-I 202 W/m 11,8 C 10,4 C 32,2 km/h (5 Bft)
22.10.2022 15:36 15,4 C 16,1 C 78 % 1016,5 hPa 0,0 l/m 17,1 km/h (3 Bft) S-SW 205 0 min 0,9 UV-I 115 W/m 11,6 C 11,0 C 25,7 km/h (4 Bft)
22.10.2022 15:39 15,3 C 16,7 C 79 % 1016,3 hPa 0,0 l/m 13,5 km/h (3 Bft) S 175 0 min 0,8 UV-I 147 W/m 11,7 C 12,1 C 20,9 km/h (4 Bft)
22.10.2022 15:42 15,3 C 16,1 C 79 % 1016,4 hPa 0,0 l/m 11,9 km/h (2 Bft) S-SW 200 0 min 0,7 UV-I 111 W/m 11,7 C 12,7 C 17,7 km/h (3 Bft)
22.10.2022 15:45 15,2 C 15,6 C 80 % 1016,4 hPa 0,0 l/m 10,3 km/h (2 Bft) S-SW 198 0 min 0,5 UV-I 115 W/m 11,8 C 13,2 C 16,1 km/h (3 Bft)
22.10.2022 15:48 15,3 C 15,6 C 80 % 1016,4 hPa 0,0 l/m 12,0 km/h (2 Bft) S 186 0 min 0,6 UV-I 107 W/m 11,9 C 12,6 C 17,7 km/h (3 Bft)
22.10.2022 15:51 15,3 C 15,6 C 79 % 1016,4 hPa 0,0 l/m 18,6 km/h (3 Bft) S 169 0 min 0,6 UV-I 137 W/m 11,7 C 10,5 C 27,4 km/h (4 Bft)
22.10.2022 15:54 15,3 C 15,6 C 79 % 1016,4 hPa 0,0 l/m 17,1 km/h (3 Bft) S 175 0 min 0,8 UV-I 118 W/m 11,7 C 10,9 C 25,7 km/h (4 Bft)
22.10.2022 15:57 15,2 C 15,0 C 79 % 1016,4 hPa 0,0 l/m 17,4 km/h (3 Bft) S 177 0 min 0,6 UV-I 63 W/m 11,6 C 10,7 C 25,7 km/h (4 Bft)
22.10.2022 16:00 15,1 C 15,0 C 79 % 1016,5 hPa 0,0 l/m 13,7 km/h (3 Bft) S-SW 197 0 min 0,5 UV-I 88 W/m 11,5 C 11,8 C 27,4 km/h (4 Bft)
22.10.2022 16:03 15,1 C 15,0 C 79 % 1016,5 hPa 0,0 l/m 16,1 km/h (3 Bft) S 183 0 min 0,5 UV-I 100 W/m 11,5 C 11,0 C 27,4 km/h (4 Bft)
22.10.2022 16:06 15,1 C 15,0 C 80 % 1016,5 hPa 0,0 l/m 14,2 km/h (3 Bft) S 174 0 min 0,5 UV-I 105 W/m 11,7 C 11,6 C 27,4 km/h (4 Bft)
22.10.2022 16:09 15,2 C 16,1 C 80 % 1016,5 hPa 0,0 l/m 12,6 km/h (3 Bft) S 186 0 min 0,6 UV-I 158 W/m 11,8 C 12,3 C 22,5 km/h (4 Bft)
22.10.2022 16:12 15,4 C 17,2 C 79 % 1016,5 hPa 0,0 l/m 15,2 km/h (3 Bft) SW 218 0 min 0,8 UV-I 184 W/m 11,8 C 11,6 C 30,6 km/h (5 Bft)
22.10.2022 16:15 15,4 C 17,8 C 78 % 1016,4 hPa 0,0 l/m 18,6 km/h (3 Bft) S-SW 202 0 min 0,7 UV-I 164 W/m 11,6 C 10,6 C 25,7 km/h (4 Bft)
22.10.2022 16:18 15,7 C 20,0 C 79 % 1016,4 hPa 0,0 l/m 14,5 km/h (3 Bft) S-SW 213 0 min 1,0 UV-I 292 W/m 12,1 C 12,2 C 20,9 km/h (4 Bft)
22.10.2022 16:21 15,8 C 20,6 C 77 % 1016,4 hPa 0,0 l/m 18,4 km/h (3 Bft) S-SW 194 0 min 0,9 UV-I 298 W/m 11,8 C 11,2 C 25,7 km/h (4 Bft)
22.10.2022 16:24 15,8 C 20,0 C 78 % 1016,4 hPa 0,0 l/m 16,4 km/h (3 Bft) S-SW 199 0 min 0,9 UV-I 271 W/m 12,0 C 11,7 C 24,1 km/h (4 Bft)
22.10.2022 16:27 15,8 C 20,6 C 78 % 1016,4 hPa 0,0 l/m 16,7 km/h (3 Bft) S 186 0 min 0,9 UV-I 265 W/m 12,0 C 11,7 C 22,5 km/h (4 Bft)
22.10.2022 16:30 15,8 C 21,1 C 77 % 1016,3 hPa 0,0 l/m 14,1 km/h (3 Bft) S-SW 202 0 min 0,8 UV-I 250 W/m 11,8 C 12,5 C 19,3 km/h (3 Bft)
22.10.2022 16:33 15,7 C 20,0 C 78 % 1016,4 hPa 0,0 l/m 15,6 km/h (3 Bft) S-SO 167 0 min 0,8 UV-I 222 W/m 11,9 C 11,9 C 24,1 km/h (4 Bft)
22.10.2022 16:36 15,7 C 17,8 C 78 % 1016,4 hPa 0,0 l/m 13,9 km/h (3 Bft) S 180 0 min 0,7 UV-I 185 W/m 11,9 C 12,4 C 24,1 km/h (4 Bft)
22.10.2022 16:39 15,7 C 16,7 C 79 % 1016,4 hPa 0,0 l/m 11,6 km/h (2 Bft) SW 224 0 min 0,7 UV-I 204 W/m 12,1 C 13,2 C 17,7 km/h (3 Bft)
22.10.2022 16:42 15,7 C 16,7 C 78 % 1016,3 hPa 0,0 l/m 12,3 km/h (3 Bft) S-SW 196 0 min 0,7 UV-I 222 W/m 11,9 C 13,0 C 17,7 km/h (3 Bft)
22.10.2022 16:45 15,7 C 18,3 C 78 % 1016,4 hPa 0,0 l/m 10,8 km/h (2 Bft) SW 215 0 min 0,7 UV-I 211 W/m 11,9 C 13,6 C 20,9 km/h (4 Bft)
22.10.2022 16:48 15,8 C 20,0 C 78 % 1016,4 hPa 0,0 l/m 10,3 km/h (2 Bft) S 191 0 min 0,6 UV-I 208 W/m 12,0 C 13,9 C 16,1 km/h (3 Bft)
22.10.2022 16:51 15,8 C 20,6 C 79 % 1016,4 hPa 0,0 l/m 8,2 km/h (2 Bft) S 187 0 min 0,6 UV-I 198 W/m 12,2 C 14,8 C 14,5 km/h (3 Bft)
22.10.2022 16:54 15,8 C 19,4 C 78 % 1016,3 hPa 0,0 l/m 7,4 km/h (2 Bft) S-SW 207 0 min 0,6 UV-I 154 W/m 12,0 C 15,3 C 12,9 km/h (3 Bft)
22.10.2022 16:57 15,6 C 17,2 C 78 % 1016,4 hPa 0,0 l/m 13,2 km/h (3 Bft) S 182 0 min 0,5 UV-I 90 W/m 11,8 C 12,5 C 24,1 km/h (4 Bft)
22.10.2022 17:00 15,4 C 16,7 C 78 % 1016,4 hPa 0,0 l/m 14,9 km/h (3 Bft) S-SO 166 0 min 0,2 UV-I 110 W/m 11,6 C 11,7 C 20,9 km/h (4 Bft)
22.10.2022 17:03 15,5 C 17,8 C 78 % 1016,4 hPa 0,0 l/m 12,4 km/h (3 Bft) S-SW 198 0 min 0,4 UV-I 133 W/m 11,7 C 12,7 C 17,7 km/h (3 Bft)
22.10.2022 17:06 15,6 C 18,3 C 78 % 1016,5 hPa 0,0 l/m 11,0 km/h (2 Bft) S-SW 207 0 min 0,2 UV-I 153 W/m 11,8 C 13,4 C 20,9 km/h (4 Bft)
22.10.2022 17:09 15,6 C 17,8 C 78 % 1016,5 hPa 0,0 l/m 12,5 km/h (3 Bft) S 175 0 min 0,0 UV-I 113 W/m 11,8 C 12,8 C 20,9 km/h (4 Bft)
22.10.2022 17:12 15,6 C 16,7 C 78 % 1016,5 hPa 0,0 l/m 7,5 km/h (2 Bft) S-SO 161 0 min 0,0 UV-I 60 W/m 11,8 C 15,0 C 14,5 km/h (3 Bft)
22.10.2022 17:15 15,4 C 16,1 C 78 % 1016,6 hPa 0,0 l/m 8,4 km/h (2 Bft) S-SO 152 0 min 0,0 UV-I 58 W/m 11,6 C 14,3 C 12,9 km/h (3 Bft)
22.10.2022 17:18 15,4 C 15,0 C 77 % 1016,4 hPa 0,0 l/m 13,2 km/h (3 Bft) S-SO 163 0 min 0,0 UV-I 41 W/m 11,4 C 12,3 C 20,9 km/h (4 Bft)
22.10.2022 17:21 15,3 C 15,0 C 78 % 1016,5 hPa 0,0 l/m 11,3 km/h (2 Bft) S 174 0 min 0,0 UV-I 40 W/m 11,5 C 12,9 C 16,1 km/h (3 Bft)
22.10.2022 17:24 15,3 C 15,0 C 78 % 1016,6 hPa 0,0 l/m 8,9 km/h (2 Bft) S-SW 206 0 min 0,0 UV-I 40 W/m 11,5 C 14,0 C 14,5 km/h (3 Bft)
22.10.2022 17:27 15,2 C 15,0 C 78 % 1016,5 hPa 0,0 l/m 7,9 km/h (2 Bft) S-SO 159 0 min 0,0 UV-I 41 W/m 11,4 C 14,4 C 17,7 km/h (3 Bft)
22.10.2022 17:30 15,1 C 15,0 C 79 % 1016,6 hPa 0,0 l/m 8,2 km/h (2 Bft) S-SW 192 0 min 0,0 UV-I 39 W/m 11,5 C 14,1 C 16,1 km/h (3 Bft)
22.10.2022 17:33 15,1 C 15,0 C 79 % 1016,7 hPa 0,0 l/m 5,3 km/h (1 Bft) S-SW 203 0 min 0,0 UV-I 40 W/m 11,5 C 15,1 C 8,0 km/h (2 Bft)
22.10.2022 17:36 15,0 C 14,4 C 79 % 1016,7 hPa 0,0 l/m 6,2 km/h (2 Bft) S 184 0 min 0,0 UV-I 42 W/m 11,4 C 15,0 C 9,7 km/h (2 Bft)
22.10.2022 17:39 15,0 C 14,4 C 79 % 1016,6 hPa 0,0 l/m 9,2 km/h (2 Bft) S 185 0 min 0,0 UV-I 43 W/m 11,4 C 13,5 C 12,9 km/h (3 Bft)
22.10.2022 17:42 14,9 C 14,4 C 80 % 1016,7 hPa 0,0 l/m 8,9 km/h (2 Bft) S-SO 160 0 min 0,0 UV-I 41 W/m 11,5 C 13,5 C 14,5 km/h (3 Bft)
22.10.2022 17:45 14,9 C 14,4 C 80 % 1016,7 hPa 0,0 l/m 7,9 km/h (2 Bft) S 191 0 min 0,0 UV-I 37 W/m 11,5 C 14,1 C 14,5 km/h (3 Bft)
22.10.2022 17:48 14,8 C 13,9 C 80 % 1016,7 hPa 0,0 l/m 7,0 km/h (2 Bft) S 174 0 min 0,0 UV-I 32 W/m 11,4 C 14,5 C 12,9 km/h (3 Bft)
22.10.2022 17:51 14,8 C 13,9 C 80 % 1016,8 hPa 0,0 l/m 6,3 km/h (2 Bft) S 185 0 min 0,0 UV-I 33 W/m 11,4 C 14,8 C 9,7 km/h (2 Bft)
22.10.2022 17:54 14,7 C 13,9 C 80 % 1016,8 hPa 0,0 l/m 6,1 km/h (2 Bft) S 178 0 min 0,0 UV-I 32 W/m 11,3 C 14,7 C 9,7 km/h (2 Bft)
22.10.2022 17:57 14,6 C 13,9 C 81 % 1016,8 hPa 0,0 l/m 6,4 km/h (2 Bft) S 180 0 min 0,0 UV-I 23 W/m 11,4 C 14,6 C 11,3 km/h (2 Bft)
22.10.2022 18:00 14,4 C 13,3 C 81 % 1016,8 hPa 0,0 l/m 5,2 km/h (1 Bft) S-SO 157 0 min 0,0 UV-I 21 W/m 11,2 C 14,4 C 9,7 km/h (2 Bft)
22.10.2022 18:03 14,4 C 13,3 C 81 % 1016,8 hPa 0,0 l/m 6,5 km/h (2 Bft) S 174 0 min 0,0 UV-I 19 W/m 11,2 C 14,4 C 11,3 km/h (2 Bft)
22.10.2022 18:06 14,3 C 13,3 C 81 % 1016,8 hPa 0,0 l/m 8,9 km/h (2 Bft) S 170 0 min 0,0 UV-I 19 W/m 11,1 C 12,9 C 14,5 km/h (3 Bft)
22.10.2022 18:09 14,3 C 13,3 C 82 % 1016,8 hPa 0,0 l/m 6,6 km/h (2 Bft) S 171 0 min 0,0 UV-I 17 W/m 11,3 C 14,2 C 11,3 km/h (2 Bft)
22.10.2022 18:12 14,2 C 12,8 C 82 % 1016,9 hPa 0,0 l/m 6,3 km/h (2 Bft) S-SO 167 0 min 0,0 UV-I 14 W/m 11,2 C 14,2 C 9,7 km/h (2 Bft)
22.10.2022 18:15 14,1 C 12,8 C 82 % 1016,9 hPa 0,0 l/m 7,6 km/h (2 Bft) S 176 0 min 0,0 UV-I 12 W/m 11,1 C 13,4 C 12,9 km/h (3 Bft)
22.10.2022 18:18 14,1 C 12,8 C 82 % 1016,8 hPa 0,0 l/m 7,5 km/h (2 Bft) S-SO 167 0 min 0,0 UV-I 10 W/m 11,1 C 13,4 C 12,9 km/h (3 Bft)
22.10.2022 18:21 14,0 C 12,2 C 82 % 1016,8 hPa 0,0 l/m 6,6 km/h (2 Bft) S 176 0 min 0,0 UV-I 7 W/m 11,0 C 13,9 C 9,7 km/h (2 Bft)
22.10.2022 18:24 13,8 C 12,2 C 82 % 1016,8 hPa 0,0 l/m 5,7 km/h (1 Bft) S 177 0 min 0,0 UV-I 5 W/m 10,8 C 13,8 C 9,7 km/h (2 Bft)
22.10.2022 18:27 13,8 C 12,2 C 82 % 1016,9 hPa 0,0 l/m 5,9 km/h (2 Bft) S 182 0 min 0,0 UV-I 0 W/m 10,8 C 13,8 C 9,7 km/h (2 Bft)
22.10.2022 18:30 13,7 C 11,7 C 83 % 1016,9 hPa 0,0 l/m 6,4 km/h (2 Bft) S 175 0 min 0,0 UV-I 0 W/m 10,9 C 13,7 C 9,7 km/h (2 Bft)
22.10.2022 18:33 13,7 C 11,7 C 83 % 1016,8 hPa 0,0 l/m 5,7 km/h (1 Bft) S 190 0 min 0,0 UV-I 0 W/m 10,9 C 13,7 C 9,7 km/h (2 Bft)
22.10.2022 18:36 13,6 C 11,7 C 83 % 1016,9 hPa 0,0 l/m 5,6 km/h (1 Bft) S 173 0 min 0,0 UV-I 0 W/m 10,8 C 13,6 C 8,0 km/h (2 Bft)
22.10.2022 18:39 13,3 C 11,1 C 83 % 1016,9 hPa 0,0 l/m 6,2 km/h (2 Bft) S 180 0 min 0,0 UV-I 0 W/m 10,5 C 13,3 C 11,3 km/h (2 Bft)
22.10.2022 18:42 13,3 C 11,1 C 84 % 1016,8 hPa 0,0 l/m 4,0 km/h (1 Bft) S 178 0 min 0,0 UV-I 0 W/m 10,7 C 13,3 C 6,4 km/h (2 Bft)
22.10.2022 18:45 13,2 C 10,6 C 84 % 1016,8 hPa 0,0 l/m 4,2 km/h (1 Bft) S 178 0 min 0,0 UV-I 0 W/m 10,6 C 13,2 C 6,4 km/h (2 Bft)
22.10.2022 18:48 13,1 C 10,6 C 84 % 1016,9 hPa 0,0 l/m 6,8 km/h (2 Bft) S-SO 161 0 min 0,0 UV-I 0 W/m 10,5 C 12,9 C 11,3 km/h (2 Bft)
22.10.2022 18:51 13,1 C 11,1 C 84 % 1016,9 hPa 0,0 l/m 5,6 km/h (1 Bft) S 172 0 min 0,0 UV-I 0 W/m 10,5 C 13,1 C 9,7 km/h (2 Bft)
22.10.2022 18:54 12,9 C 10,6 C 84 % 1016,9 hPa 0,0 l/m 5,0 km/h (1 Bft) S 180 0 min 0,0 UV-I 0 W/m 10,3 C 12,9 C 8,0 km/h (2 Bft)
22.10.2022 18:57 12,7 C 10,6 C 85 % 1017,0 hPa 0,0 l/m 4,6 km/h (1 Bft) S 177 0 min 0,0 UV-I 0 W/m 10,2 C 12,7 C 8,0 km/h (2 Bft)
22.10.2022 19:00 12,5 C 10,0 C 85 % 1017,0 hPa 0,0 l/m 3,2 km/h (1 Bft) S 177 0 min 0,0 UV-I 0 W/m 10,0 C 12,5 C 4,8 km/h (1 Bft)
22.10.2022 19:03 12,4 C 9,4 C 86 % 1017,1 hPa 0,0 l/m 1,6 km/h (1 Bft) S 177 0 min 0,0 UV-I 0 W/m 10,1 C 12,4 C 4,8 km/h (1 Bft)
22.10.2022 19:06 12,2 C 9,4 C 86 % 1017,1 hPa 0,0 l/m 0,6 km/h (0 Bft) S 177 0 min 0,0 UV-I 0 W/m 9,9 C 12,2 C 4,8 km/h (1 Bft)
22.10.2022 19:09 12,1 C 9,4 C 87 % 1017,2 hPa 0,0 l/m 0,0 km/h (0 Bft) S 177 0 min 0,0 UV-I 0 W/m 10,0 C 12,1 C 1,6 km/h (1 Bft)
22.10.2022 19:12 12,1 C 9,4 C 87 % 1017,3 hPa 0,0 l/m 0,0 km/h (0 Bft) S 177 0 min 0,0 UV-I 0 W/m 10,0 C 12,1 C 0,0 km/h (0 Bft)
22.10.2022 19:15 12,0 C 9,4 C 87 % 1017,2 hPa 0,0 l/m 0,0 km/h (0 Bft) S 177 0 min 0,0 UV-I 0 W/m 9,9 C 12,0 C 0,0 km/h (0 Bft)
22.10.2022 19:18 12,0 C 9,4 C 88 % 1017,2 hPa 0,0 l/m 1,3 km/h (1 Bft) S 177 0 min 0,0 UV-I 0 W/m 10,1 C 12,0 C 3,2 km/h (1 Bft)
22.10.2022 19:21 11,9 C 8,9 C 87 % 1017,2 hPa 0,0 l/m 0,3 km/h (0 Bft) S 177 0 min 0,0 UV-I 0 W/m 9,8 C 11,9 C 1,6 km/h (1 Bft)
22.10.2022 19:24 11,8 C 8,9 C 88 % 1017,2 hPa 0,0 l/m 0,0 km/h (0 Bft) S 177 0 min 0,0 UV-I 0 W/m 9,9 C 11,8 C 0,0 km/h (0 Bft)
22.10.2022 19:27 11,6 C 8,9 C 88 % 1017,2 hPa 0,0 l/m 0,7 km/h (0 Bft) S 177 0 min 0,0 UV-I 0 W/m 9,7 C 11,6 C 1,6 km/h (1 Bft)
22.10.2022 19:30 11,2 C 8,3 C 88 % 1017,2 hPa 0,0 l/m 1,6 km/h (1 Bft) S 177 0 min 0,0 UV-I 0 W/m 9,3 C 11,2 C 3,2 km/h (1 Bft)
22.10.2022 19:33 11,0 C 8,3 C 89 % 1017,3 hPa 0,0 l/m 0,9 km/h (0 Bft) S 177 0 min 0,0 UV-I 0 W/m 9,3 C 11,0 C 1,6 km/h (1 Bft)
22.10.2022 19:36 10,9 C 8,9 C 89 % 1017,2 hPa 0,0 l/m 0,3 km/h (0 Bft) S 177 0 min 0,0 UV-I 0 W/m 9,2 C 10,9 C 1,6 km/h (1 Bft)
22.10.2022 19:39 11,0 C 8,9 C 90 % 1017,3 hPa 0,0 l/m 0,0 km/h (0 Bft) S 177 0 min 0,0 UV-I 0 W/m 9,4 C 11,0 C 0,0 km/h (0 Bft)
22.10.2022 19:42 11,1 C 8,3 C 90 % 1017,2 hPa 0,0 l/m 0,0 km/h (0 Bft) S 177 0 min 0,0 UV-I 0 W/m 9,5 C 11,1 C 0,0 km/h (0 Bft)
22.10.2022 19:45 10,9 C 8,3 C 90 % 1017,2 hPa 0,0 l/m 0,5 km/h (0 Bft) S 177 0 min 0,0 UV-I 0 W/m 9,3 C 10,9 C 3,2 km/h (1 Bft)
22.10.2022 19:48 11,0 C 8,3 C 91 % 1017,2 hPa 0,0 l/m 0,0 km/h (0 Bft) S 177 0 min 0,0 UV-I 0 W/m 9,6 C 11,0 C 0,0 km/h (0 Bft)
22.10.2022 19:51 10,9 C 8,3 C 90 % 1017,2 hPa 0,0 l/m 0,0 km/h (0 Bft) S 177 0 min 0,0 UV-I 0 W/m 9,3 C 10,9 C 0,0 km/h (0 Bft)
22.10.2022 19:54 10,9 C 8,3 C 91 % 1017,3 hPa 0,0 l/m 0,0 km/h (0 Bft) S 177 0 min 0,0 UV-I 0 W/m 9,5 C 10,9 C 0,0 km/h (0 Bft)
22.10.2022 19:57 10,9 C 8,3 C 91 % 1017,3 hPa 0,0 l/m 0,0 km/h (0 Bft) S 177 0 min 0,0 UV-I 0 W/m 9,5 C 10,9 C 0,0 km/h (0 Bft)
22.10.2022 20:00 11,1 C 8,9 C 91 % 1017,3 hPa 0,0 l/m 0,0 km/h (0 Bft) S 177 0 min 0,0 UV-I 0 W/m 9,7 C 11,1 C 0,0 km/h (0 Bft)
22.10.2022 20:03 11,0 C 8,3 C 91 % 1017,2 hPa 0,0 l/m 0,0 km/h (0 Bft) S 177 0 min 0,0 UV-I 0 W/m 9,6 C 11,0 C 0,0 km/h (0 Bft)
22.10.2022 20:06 11,1 C 8,3 C 91 % 1017,2 hPa 0,0 l/m 0,0 km/h (0 Bft) S 177 0 min 0,0 UV-I 0 W/m 9,7 C 11,1 C 0,0 km/h (0 Bft)
22.10.2022 20:09 10,7 C 7,8 C 91 % 1017,2 hPa 0,0 l/m 0,0 km/h (0 Bft) S 177 0 min 0,0 UV-I 0 W/m 9,3 C 10,7 C 0,0 km/h (0 Bft)
22.10.2022 20:12 10,4 C 8,3 C 91 % 1017,2 hPa 0,0 l/m 0,0 km/h (0 Bft) S 177 0 min 0,0 UV-I 0 W/m 9,0 C 10,4 C 0,0 km/h (0 Bft)
22.10.2022 20:15 10,3 C 7,8 C 91 % 1017,2 hPa 0,0 l/m 0,0 km/h (0 Bft) S 177 0 min 0,0 UV-I 0 W/m 8,9 C 10,3 C 0,0 km/h (0 Bft)
22.10.2022 20:18 10,3 C 7,8 C 91 % 1017,1 hPa 0,0 l/m 0,0 km/h (0 Bft) S 177 0 min 0,0 UV-I 0 W/m 8,9 C 10,3 C 0,0 km/h (0 Bft)
22.10.2022 20:21 10,3 C 7,8 C 91 % 1017,1 hPa 0,0 l/m 0,0 km/h (0 Bft) S 177 0 min 0,0 UV-I 0 W/m 8,9 C 10,3 C 0,0 km/h (0 Bft)
22.10.2022 20:24 10,3 C 7,8 C 91 % 1017,2 hPa 0,0 l/m 0,5 km/h (0 Bft) S 177 0 min 0,0 UV-I 0 W/m 8,9 C 10,3 C 3,2 km/h (1 Bft)
22.10.2022 20:27 10,4 C 7,8 C 92 % 1017,2 hPa 0,0 l/m 1,1 km/h (1 Bft) S 177 0 min 0,0 UV-I 0 W/m 9,2 C 10,4 C 3,2 km/h (1 Bft)
22.10.2022 20:30 10,3 C 7,8 C 91 % 1017,2 hPa 0,0 l/m 2,5 km/h (1 Bft) S 177 0 min 0,0 UV-I 0 W/m 8,9 C 10,3 C 4,8 km/h (1 Bft)
22.10.2022 20:33 10,1 C 7,2 C 91 % 1017,3 hPa 0,0 l/m 2,1 km/h (1 Bft) S 177 0 min 0,0 UV-I 0 W/m 8,7 C 10,1 C 4,8 km/h (1 Bft)
22.10.2022 20:36 9,8 C 7,2 C 91 % 1017,3 hPa 0,0 l/m 3,1 km/h (1 Bft) S 177 0 min 0,0 UV-I 0 W/m 8,4 C 9,8 C 4,8 km/h (1 Bft)
22.10.2022 20:39 9,8 C 7,2 C 92 % 1017,2 hPa 0,0 l/m 1,3 km/h (1 Bft) S 177 0 min 0,0 UV-I 0 W/m 8,6 C 9,8 C 3,2 km/h (1 Bft)
22.10.2022 20:42 9,8 C 7,8 C 92 % 1017,3 hPa 0,0 l/m 0,3 km/h (0 Bft) S 177 0 min 0,0 UV-I 0 W/m 8,6 C 9,8 C 1,6 km/h (1 Bft)
22.10.2022 20:45 9,8 C 7,2 C 92 % 1017,2 hPa 0,0 l/m 0,4 km/h (0 Bft) S 177 0 min 0,0 UV-I 0 W/m 8,6 C 9,8 C 3,2 km/h (1 Bft)
22.10.2022 20:48 10,2 C 7,8 C 93 % 1017,3 hPa 0,0 l/m 0,8 km/h (0 Bft) S 177 0 min 0,0 UV-I 0 W/m 9,1 C 10,2 C 3,2 km/h (1 Bft)
22.10.2022 20:51 10,5 C 8,3 C 93 % 1017,2 hPa 0,0 l/m 1,5 km/h (1 Bft) S 177 0 min 0,0 UV-I 0 W/m 9,4 C 10,5 C 4,8 km/h (1 Bft)
22.10.2022 20:54 10,5 C 8,3 C 93 % 1017,1 hPa 0,0 l/m 0,7 km/h (0 Bft) S 177 0 min 0,0 UV-I 0 W/m 9,4 C 10,5 C 3,2 km/h (1 Bft)
22.10.2022 20:57 10,1 C 7,8 C 91 % 1017,1 hPa 0,0 l/m 0,3 km/h (0 Bft) S 177 0 min 0,0 UV-I 0 W/m 8,7 C 10,1 C 1,6 km/h (1 Bft)
22.10.2022 21:00 9,7 C 7,8 C 92 % 1017,2 hPa 0,0 l/m 0,2 km/h (0 Bft) S 177 0 min 0,0 UV-I 0 W/m 8,5 C 9,7 C 1,6 km/h (1 Bft)
22.10.2022 21:03 9,5 C 7,2 C 92 % 1017,2 hPa 0,0 l/m 0,4 km/h (0 Bft) S 177 0 min 0,0 UV-I 0 W/m 8,3 C 9,5 C 1,6 km/h (1 Bft)
22.10.2022 21:06 9,4 C 7,2 C 92 % 1017,1 hPa 0,0 l/m 0,0 km/h (0 Bft) S 177 0 min 0,0 UV-I 0 W/m 8,2 C 9,4 C 0,0 km/h (0 Bft)
22.10.2022 21:09 9,4 C 7,2 C 92 % 1017,2 hPa 0,0 l/m 0,1 km/h (0 Bft) S 177 0 min 0,0 UV-I 0 W/m 8,2 C 9,4 C 1,6 km/h (1 Bft)
22.10.2022 21:12 9,3 C 7,2 C 92 % 1017,2 hPa 0,0 l/m 0,6 km/h (0 Bft) S 177 0 min 0,0 UV-I 0 W/m 8,1 C 9,3 C 1,6 km/h (1 Bft)
22.10.2022 21:15 9,1 C 7,2 C 92 % 1017,2 hPa 0,0 l/m 1,0 km/h (0 Bft) S 177 0 min 0,0 UV-I 0 W/m 7,9 C 9,1 C 1,6 km/h (1 Bft)
22.10.2022 21:18 9,3 C 7,2 C 93 % 1017,2 hPa 0,0 l/m 2,4 km/h (1 Bft) S 177 0 min 0,0 UV-I 0 W/m 8,2 C 9,3 C 4,8 km/h (1 Bft)
22.10.2022 21:21 9,6 C 7,2 C 93 % 1017,2 hPa 0,0 l/m 3,4 km/h (1 Bft) S 177 0 min 0,0 UV-I 0 W/m 8,5 C 9,6 C 4,8 km/h (1 Bft)
22.10.2022 21:24 9,8 C 7,8 C 93 % 1017,3 hPa 0,0 l/m 1,9 km/h (1 Bft) S 177 0 min 0,0 UV-I 0 W/m 8,7 C 9,8 C 4,8 km/h (1 Bft)
22.10.2022 21:27 9,5 C 7,2 C 93 % 1017,1 hPa 0,0 l/m 1,8 km/h (1 Bft) S 177 0 min 0,0 UV-I 0 W/m 8,4 C 9,5 C 3,2 km/h (1 Bft)
22.10.2022 21:30 9,3 C 7,2 C 93 % 1017,1 hPa 0,0 l/m 0,2 km/h (0 Bft) S 177 0 min 0,0 UV-I 0 W/m 8,2 C 9,3 C 1,6 km/h (1 Bft)
22.10.2022 21:33 9,2 C 7,2 C 92 % 1017,2 hPa 0,0 l/m 0,9 km/h (0 Bft) S 177 0 min 0,0 UV-I 0 W/m 8,0 C 9,2 C 3,2 km/h (1 Bft)
22.10.2022 21:36 9,1 C 7,2 C 93 % 1017,2 hPa 0,0 l/m 1,2 km/h (1 Bft) S 177 0 min 0,0 UV-I 0 W/m 8,0 C 9,1 C 3,2 km/h (1 Bft)
22.10.2022 21:39 9,4 C 7,2 C 93 % 1017,2 hPa 0,0 l/m 1,0 km/h (0 Bft) S 177 0 min 0,0 UV-I 0 W/m 8,3 C 9,4 C 3,2 km/h (1 Bft)
22.10.2022 21:42 9,9 C 7,8 C 94 % 1017,2 hPa 0,0 l/m 2,7 km/h (1 Bft) S 177 0 min 0,0 UV-I 0 W/m 9,0 C 9,9 C 4,8 km/h (1 Bft)
22.10.2022 21:45 10,1 C 7,8 C 93 % 1017,3 hPa 0,0 l/m 0,5 km/h (0 Bft) S 177 0 min 0,0 UV-I 0 W/m 9,0 C 10,1 C 1,6 km/h (1 Bft)
22.10.2022 21:48 9,9 C 7,8 C 93 % 1017,3 hPa 0,0 l/m 0,3 km/h (0 Bft) S 177 0 min 0,0 UV-I 0 W/m 8,8 C 9,9 C 1,6 km/h (1 Bft)
22.10.2022 21:51 9,8 C 7,2 C 93 % 1017,3 hPa 0,0 l/m 0,0 km/h (0 Bft) S 177 0 min 0,0 UV-I 0 W/m 8,7 C 9,8 C 0,0 km/h (0 Bft)
22.10.2022 21:54 10,1 C 7,8 C 93 % 1017,2 hPa 0,0 l/m 1,3 km/h (1 Bft) S 177 0 min 0,0 UV-I 0 W/m 9,0 C 10,1 C 3,2 km/h (1 Bft)
22.10.2022 21:57 9,9 C 7,8 C 93 % 1017,2 hPa 0,0 l/m 0,6 km/h (0 Bft) S 177 0 min 0,0 UV-I 0 W/m 8,8 C 9,9 C 1,6 km/h (1 Bft)
22.10.2022 22:00 9,6 C 7,8 C 93 % 1017,2 hPa 0,0 l/m 0,8 km/h (0 Bft) S 177 0 min 0,0 UV-I 0 W/m 8,5 C 9,6 C 1,6 km/h (1 Bft)
22.10.2022 22:03 9,9 C 7,8 C 94 % 1017,3 hPa 0,0 l/m 0,4 km/h (0 Bft) S 177 0 min 0,0 UV-I 0 W/m 9,0 C 9,9 C 3,2 km/h (1 Bft)
22.10.2022 22:06 10,3 C 8,3 C 94 % 1017,3 hPa 0,0 l/m 1,0 km/h (0 Bft) S 172 0 min 0,0 UV-I 0 W/m 9,4 C 10,3 C 4,8 km/h (1 Bft)
22.10.2022 22:09 10,5 C 8,3 C 94 % 1017,2 hPa 0,0 l/m 0,9 km/h (0 Bft) S 172 0 min 0,0 UV-I 0 W/m 9,6 C 10,5 C 3,2 km/h (1 Bft)
22.10.2022 22:12 10,1 C 8,3 C 93 % 1017,2 hPa 0,0 l/m 0,8 km/h (0 Bft) S 172 0 min 0,0 UV-I 0 W/m 9,0 C 10,1 C 3,2 km/h (1 Bft)
22.10.2022 22:15 10,2 C 8,3 C 93 % 1017,2 hPa 0,0 l/m 0,2 km/h (0 Bft) S 172 0 min 0,0 UV-I 0 W/m 9,1 C 10,2 C 1,6 km/h (1 Bft)
22.10.2022 22:18 9,9 C 7,8 C 93 % 1017,3 hPa 0,0 l/m 0,6 km/h (0 Bft) S 172 0 min 0,0 UV-I 0 W/m 8,8 C 9,9 C 4,8 km/h (1 Bft)
22.10.2022 22:21 10,1 C 7,8 C 94 % 1017,2 hPa 0,0 l/m 0,8 km/h (0 Bft) S 172 0 min 0,0 UV-I 0 W/m 9,2 C 10,1 C 3,2 km/h (1 Bft)
22.10.2022 22:24 10,3 C 7,8 C 94 % 1017,3 hPa 0,0 l/m 3,9 km/h (1 Bft) SO 140 0 min 0,0 UV-I 0 W/m 9,4 C 10,3 C 8,0 km/h (2 Bft)
22.10.2022 22:27 10,2 C 8,3 C 93 % 1017,2 hPa 0,0 l/m 1,3 km/h (1 Bft) SO 139 0 min 0,0 UV-I 0 W/m 9,1 C 10,2 C 6,4 km/h (2 Bft)
22.10.2022 22:30 9,7 C 7,8 C 92 % 1017,2 hPa 0,0 l/m 0,8 km/h (0 Bft) SO 138 0 min 0,0 UV-I 0 W/m 8,5 C 9,7 C 3,2 km/h (1 Bft)
22.10.2022 22:33 9,7 C 7,8 C 94 % 1017,2 hPa 0,0 l/m 2,1 km/h (1 Bft) SO 138 0 min 0,0 UV-I 0 W/m 8,8 C 9,7 C 4,8 km/h (1 Bft)
22.10.2022 22:36 9,8 C 7,8 C 94 % 1017,1 hPa 0,0 l/m 1,3 km/h (1 Bft) SO 138 0 min 0,0 UV-I 0 W/m 8,9 C 9,8 C 3,2 km/h (1 Bft)
22.10.2022 22:39 9,8 C 7,8 C 93 % 1017,2 hPa 0,0 l/m 1,8 km/h (1 Bft) SO 124 0 min 0,0 UV-I 0 W/m 8,7 C 9,8 C 6,4 km/h (2 Bft)
22.10.2022 22:42 9,4 C 7,2 C 92 % 1017,3 hPa 0,0 l/m 0,5 km/h (0 Bft) SO 124 0 min 0,0 UV-I 0 W/m 8,2 C 9,4 C 3,2 km/h (1 Bft)
22.10.2022 22:45 9,2 C 7,2 C 92 % 1017,2 hPa 0,0 l/m 0,7 km/h (0 Bft) SO 124 0 min 0,0 UV-I 0 W/m 8,0 C 9,2 C 1,6 km/h (1 Bft)
22.10.2022 22:48 8,9 C 7,2 C 93 % 1017,2 hPa 0,0 l/m 1,3 km/h (1 Bft) SO 124 0 min 0,0 UV-I 0 W/m 7,8 C 8,9 C 3,2 km/h (1 Bft)
22.10.2022 22:51 8,8 C 6,7 C 93 % 1017,2 hPa 0,0 l/m 0,6 km/h (0 Bft) SO 124 0 min 0,0 UV-I 0 W/m 7,7 C 8,8 C 1,6 km/h (1 Bft)
22.10.2022 22:54 8,7 C 6,7 C 93 % 1017,3 hPa 0,0 l/m 1,4 km/h (1 Bft) SO 124 0 min 0,0 UV-I 0 W/m 7,6 C 8,7 C 3,2 km/h (1 Bft)
22.10.2022 22:57 8,4 C 6,7 C 93 % 1017,4 hPa 0,0 l/m 0,2 km/h (0 Bft) SO 124 0 min 0,0 UV-I 0 W/m 7,3 C 8,4 C 1,6 km/h (1 Bft)
22.10.2022 23:00 8,3 C 6,1 C 93 % 1017,3 hPa 0,0 l/m 0,4 km/h (0 Bft) SO 124 0 min 0,0 UV-I 0 W/m 7,2 C 8,3 C 1,6 km/h (1 Bft)
22.10.2022 23:03 8,4 C 6,7 C 93 % 1017,4 hPa 0,0 l/m 0,3 km/h (0 Bft) SO 124 0 min 0,0 UV-I 0 W/m 7,3 C 8,4 C 1,6 km/h (1 Bft)
22.10.2022 23:06 8,3 C 6,1 C 93 % 1017,3 hPa 0,0 l/m 1,2 km/h (1 Bft) SO 124 0 min 0,0 UV-I 0 W/m 7,2 C 8,3 C 3,2 km/h (1 Bft)
22.10.2022 23:09 8,7 C 6,7 C 94 % 1017,4 hPa 0,0 l/m 1,3 km/h (1 Bft) SO 124 0 min 0,0 UV-I 0 W/m 7,8 C 8,7 C 1,6 km/h (1 Bft)
22.10.2022 23:12 8,6 C 6,7 C 93 % 1017,5 hPa 0,0 l/m 0,7 km/h (0 Bft) SO 124 0 min 0,0 UV-I 0 W/m 7,5 C 8,6 C 1,6 km/h (1 Bft)
22.10.2022 23:15 8,7 C 6,7 C 94 % 1017,5 hPa 0,0 l/m 0,6 km/h (0 Bft) SO 124 0 min 0,0 UV-I 0 W/m 7,8 C 8,7 C 1,6 km/h (1 Bft)
22.10.2022 23:18 8,3 C 6,1 C 93 % 1017,6 hPa 0,0 l/m 0,2 km/h (0 Bft) SO 124 0 min 0,0 UV-I 0 W/m 7,2 C 8,3 C 1,6 km/h (1 Bft)
22.10.2022 23:21 8,2 C 6,7 C 93 % 1017,5 hPa 0,0 l/m 0,0 km/h (0 Bft) SO 124 0 min 0,0 UV-I 0 W/m 7,1 C 8,2 C 0,0 km/h (0 Bft)
22.10.2022 23:24 8,2 C 6,1 C 93 % 1017,6 hPa 0,0 l/m 0,1 km/h (0 Bft) SO 124 0 min 0,0 UV-I 0 W/m 7,1 C 8,2 C 1,6 km/h (1 Bft)
22.10.2022 23:27 8,1 C 6,1 C 93 % 1017,7 hPa 0,0 l/m 0,0 km/h (0 Bft) SO 124 0 min 0,0 UV-I 0 W/m 7,0 C 8,1 C 0,0 km/h (0 Bft)
22.10.2022 23:30 8,2 C 6,1 C 94 % 1017,6 hPa 0,0 l/m 0,2 km/h (0 Bft) SO 124 0 min 0,0 UV-I 0 W/m 7,3 C 8,2 C 1,6 km/h (1 Bft)
22.10.2022 23:33 8,1 C 6,1 C 93 % 1017,6 hPa 0,0 l/m 0,1 km/h (0 Bft) SO 124 0 min 0,0 UV-I 0 W/m 7,0 C 8,1 C 1,6 km/h (1 Bft)
22.10.2022 23:36 7,8 C 6,1 C 93 % 1017,5 hPa 0,0 l/m 0,4 km/h (0 Bft) SO 124 0 min 0,0 UV-I 0 W/m 6,7 C 7,8 C 1,6 km/h (1 Bft)
22.10.2022 23:39 7,7 C 6,1 C 93 % 1017,6 hPa 0,0 l/m 0,8 km/h (0 Bft) SO 124 0 min 0,0 UV-I 0 W/m 6,6 C 7,7 C 1,6 km/h (1 Bft)
22.10.2022 23:42 7,7 C 6,1 C 93 % 1017,5 hPa 0,0 l/m 0,0 km/h (0 Bft) SO 124 0 min 0,0 UV-I 0 W/m 6,6 C 7,7 C 1,6 km/h (1 Bft)
22.10.2022 23:45 8,3 C 6,1 C 94 % 1017,5 hPa 0,0 l/m 0,0 km/h (0 Bft) SO 124 0 min 0,0 UV-I 0 W/m 7,4 C 8,3 C 1,6 km/h (1 Bft)
22.10.2022 23:48 8,0 C 6,1 C 94 % 1017,5 hPa 0,0 l/m 0,2 km/h (0 Bft) SO 124 0 min 0,0 UV-I 0 W/m 7,1 C 8,0 C 1,6 km/h (1 Bft)
22.10.2022 23:51 8,0 C 6,1 C 93 % 1017,5 hPa 0,0 l/m 0,3 km/h (0 Bft) SO 124 0 min 0,0 UV-I 0 W/m 6,9 C 8,0 C 1,6 km/h (1 Bft)
22.10.2022 23:54 8,1 C 6,1 C 94 % 1017,5 hPa 0,0 l/m 0,0 km/h (0 Bft) SO 124 0 min 0,0 UV-I 0 W/m 7,2 C 8,1 C 0,0 km/h (0 Bft)
22.10.2022 23:57 8,2 C 6,1 C 94 % 1017,5 hPa 0,0 l/m 0,6 km/h (0 Bft) SO 124 0 min 0,0 UV-I 0 W/m 7,3 C 8,2 C 3,2 km/h (1 Bft)
_ Min-Zeit 23:39 23:00 16:21 00:00 - 19:09 - - - - - 23:39 09:27 19:12
Minimum _ 7,7 C 6,1 C 77 % 1011,6 hPa - 0,0 km/h (0 Bft) - - - - - 6,6 C 5,8 C 0,0 km/h (0 Bft)
_ Max-Zeit 16:21 16:30 21:42 23:27 00:00 11:42 - - 14:09 14:39 15:21 02:24 16:54 09:39
Maximum _ 15,9 C 21,1 C 94 % 1017,7 hPa 0,0 l/m 21,6 km/h
S (4 Bft)
- - 3 min 1,9 UV-I 457 W/m 12,7 C 15,3 C 40,2 km/h
S (6 Bft)
Durchschnitt _ 12,7 C 12,1 C 88 % 1015,1 hPa #0,0 l/m 8,9 km/h (2 Bft) S - #12 min. 0,8 UV-I 119 W/m 10,8 C 10,8 C 14,7 km/h (3 Bft)